M I D A S
Marine Information and Data Acquisition System
Tripno 1996 of the Zeeleeuw from 2010-10-27 06:16:02 to 2010-10-27 14:40:10
Back to CruiseResearch ActivitiesStationsMapUnderway DataData graphs

EquipmentUnitsComment
TimeDGPSUTC
LatitudeDGPSDM.mWGS84
LongitudeDGPSDM.mWGS84
TemperatureSBE03/SBE38deg celciusITS90
ConductivitySBE21S/mITS90
SalinitySBE21 Practical Salinity Units
ChlorophylAChelsea fluorimeterg/lCalibrated in Aceton
Missing or incorrect values are displayed as -999
Sea surface data collected by the RV Zeeleeuw from 2010-10-27 06:10:07 to 2010-10-27 14:46:31
                                                                                    Next 1000 lines
Time Latitude Longitude Temperature Conductivity Salinity ChlorophylA
2010-10-27 06:10:16 51°13.664 2°55.961 17.2851 0.069845 0.42623 -0.338911
2010-10-27 06:10:21 51°13.664 2°55.961 17.2847 0.069845 0.42623 -0.338911
2010-10-27 06:10:26 51°13.664 2°55.961 17.2783 0.069845 0.42623 -0.338911
2010-10-27 06:10:31 51°13.664 2°55.961 17.2827 0.069845 0.426222 -0.373735
2010-10-27 06:10:35 51°13.664 2°55.961 17.2832 0.069845 0.426238 -0.338911
2010-10-27 06:10:40 51°13.664 2°55.961 17.287 0.069845 0.42623 -0.338911
2010-10-27 06:10:45 51°13.664 2°55.961 17.2886 0.069845 0.42623 -0.373735
2010-10-27 06:10:50 51°13.664 2°55.961 17.2906 0.069845 0.42623 -0.373735
2010-10-27 06:10:55 51°13.664 2°55.961 17.2896 0.069845 0.42623 -0.373735
2010-10-27 06:10:59 51°13.664 2°55.962 17.2905 0.069845 0.42623 -0.338911
2010-10-27 06:11:05 51°13.664 2°55.962 17.2916 0.069845 0.426238 -0.304087
2010-10-27 06:11:10 51°13.664 2°55.962 17.2899 0.069845 0.426238 -0.373735
2010-10-27 06:11:15 51°13.664 2°55.962 17.2863 0.069845 0.426238 -0.338911
2010-10-27 06:11:20 51°13.664 2°55.962 17.2874 0.069845 0.426238 -0.373735
2010-10-27 06:11:25 51°13.664 2°55.962 17.2872 0.069845 0.426238 -0.373735
2010-10-27 06:11:30 51°13.663 2°55.962 17.289 0.069845 0.42623 -0.338911
2010-10-27 06:11:35 51°13.664 2°55.962 17.289 0.069845 0.426238 -0.373735
2010-10-27 06:11:39 51°13.664 2°55.962 17.2868 0.069845 0.42623 -0.338911
2010-10-27 06:11:44 51°13.664 2°55.961 17.2814 0.069845 0.426238 -0.373735
2010-10-27 06:11:49 51°13.664 2°55.961 17.2741 0.069845 0.426238 -0.373735
2010-10-27 06:11:54 51°13.663 2°55.962 17.2619 0.069845 0.426238 -0.373735
2010-10-27 06:11:59 51°13.664 2°55.962 17.2654 0.069845 0.426238 -0.373735
2010-10-27 06:12:03 51°13.664 2°55.961 17.2814 0.069741 0.42558 -0.338911
2010-10-27 06:12:08 51°13.663 2°55.961 17.2926 0.069845 0.426238 -0.338911
2010-10-27 06:12:13 51°13.663 2°55.961 17.2938 0.069845 0.426238 -0.338911
2010-10-27 06:12:18 51°13.663 2°55.961 17.295 0.069845 0.426238 -0.373735
2010-10-27 06:12:24 51°13.663 2°55.961 17.2889 0.069845 0.426238 -0.373735
2010-10-27 06:12:29 51°13.663 2°55.961 17.2873 0.069845 0.426238 -0.373735
2010-10-27 06:12:35 51°13.664 2°55.961 17.2858 0.069845 0.426246 -0.373735
2010-10-27 06:12:39 51°13.663 2°55.961 17.2852 0.069845 0.426238 -0.338911
2010-10-27 06:12:44 51°13.663 2°55.96 17.2874 0.069845 0.426246 -0.373735
2010-10-27 06:12:49 51°13.663 2°55.96 17.2873 0.069845 0.426246 -0.338911
2010-10-27 06:12:54 51°13.663 2°55.96 17.2872 0.069845 0.426246 -0.338911
2010-10-27 06:12:59 51°13.663 2°55.96 17.2874 0.069845 0.426238 -0.373735
2010-10-27 06:13:03 51°13.663 2°55.96 17.2764 0.069845 0.426238 -0.373735
2010-10-27 06:13:08 51°13.663 2°55.961 17.2784 0.069845 0.426238 -0.338911
2010-10-27 06:13:13 51°13.664 2°55.96 17.2837 0.069845 0.426238 -0.338911
2010-10-27 06:13:19 51°13.663 2°55.961 17.287 0.069845 0.426246 -0.373735
2010-10-27 06:13:23 51°13.663 2°55.961 17.2891 0.069845 0.426246 -0.373735
2010-10-27 06:13:28 51°13.664 2°55.96 17.2891 0.069845 0.426246 -0.373735
2010-10-27 06:13:33 51°13.664 2°55.96 17.2888 0.069845 0.426246 -0.373735
2010-10-27 06:13:38 51°13.664 2°55.96 17.2899 0.069845 0.426246 -0.373735
2010-10-27 06:13:43 51°13.664 2°55.96 17.2894 0.069845 0.426246 -0.373735
2010-10-27 06:13:48 51°13.664 2°55.96 17.287 0.069845 0.426246 -0.338911
2010-10-27 06:13:53 51°13.664 2°55.96 17.2899 0.069845 0.426246 -0.338911
2010-10-27 06:13:59 51°13.664 2°55.96 17.2842 0.069845 0.426246 -0.373735
2010-10-27 06:14:03 51°13.664 2°55.96 17.2853 0.069845 0.426246 -0.373735
2010-10-27 06:14:08 51°13.665 2°55.96 17.2809 0.069845 0.426246 -0.373735
2010-10-27 06:14:13 51°13.665 2°55.959 17.2775 0.069845 0.426246 -0.373735
2010-10-27 06:14:19 51°13.665 2°55.959 17.2922 0.069845 0.426238 -0.373735
2010-10-27 06:14:23 51°13.664 2°55.959 17.2923 0.069845 0.426238 -0.373735
2010-10-27 06:14:28 51°13.664 2°55.96 17.2895 0.069845 0.426246 -0.338911
2010-10-27 06:14:33 51°13.664 2°55.959 17.2956 0.069845 0.426246 -0.373735
2010-10-27 06:14:38 51°13.664 2°55.959 17.2955 0.069845 0.426254 -0.373735
2010-10-27 06:14:43 51°13.665 2°55.959 17.2943 0.069845 0.426246 -0.373735
2010-10-27 06:14:48 51°13.664 2°55.959 17.2954 0.069845 0.426246 -0.373735
2010-10-27 06:14:53 51°13.664 2°55.959 17.2937 0.069845 0.426246 -0.373735
2010-10-27 06:14:58 51°13.664 2°55.959 17.2941 0.069845 0.426254 -0.338911
2010-10-27 06:15:03 51°13.664 2°55.959 17.2916 0.069845 0.426254 -0.373735
2010-10-27 06:15:08 51°13.664 2°55.96 17.2815 0.069845 0.426254 -0.373735
2010-10-27 06:15:13 51°13.664 2°55.96 17.2887 0.069845 0.426254 -0.373735
2010-10-27 06:15:18 51°13.664 2°55.96 17.2991 0.069845 0.426254 -0.338911
2010-10-27 06:15:23 51°13.663 2°55.96 17.2859 0.069845 0.426254 -0.338911
2010-10-27 06:15:28 51°13.663 2°55.96 17.2969 0.069845 0.426254 -0.338911
2010-10-27 06:15:33 51°13.663 2°55.96 17.2908 0.069845 0.426246 -0.338911
2010-10-27 06:15:39 51°13.664 2°55.96 17.3007 0.069845 0.426254 -0.338911
2010-10-27 06:15:43 51°13.664 2°55.96 17.3084 0.069845 0.426254 -0.373735
2010-10-27 06:15:48 51°13.664 2°55.96 17.3044 0.069845 0.426254 -0.373735
2010-10-27 06:15:54 51°13.664 2°55.961 17.3056 0.069845 0.426254 -0.373735
2010-10-27 06:15:59 51°13.664 2°55.961 17.3016 0.069845 0.426262 -0.373735
2010-10-27 06:16:03 51°13.663 2°55.961 17.305 0.069845 0.426262 -0.373735
2010-10-27 06:16:08 51°13.664 2°55.961 17.311 0.069845 0.426262 -0.338911
2010-10-27 06:16:13 51°13.664 2°55.961 17.3069 0.069845 0.426262 -0.373735
2010-10-27 06:16:19 51°13.664 2°55.961 17.3045 0.069845 0.426262 -0.373735
2010-10-27 06:16:23 51°13.664 2°55.961 17.3073 0.069845 0.426262 -0.373735
2010-10-27 06:16:28 51°13.664 2°55.961 17.3088 0.069845 0.426254 -0.373735
2010-10-27 06:16:33 51°13.665 2°55.961 17.3094 0.069845 0.426254 -0.338911
2010-10-27 06:16:38 51°13.665 2°55.961 17.304 0.069845 0.426254 -0.373735
2010-10-27 06:16:43 51°13.664 2°55.961 17.2951 0.069845 0.426254 -0.373735
2010-10-27 06:16:48 51°13.665 2°55.961 17.2921 0.069845 0.426262 -0.338911
2010-10-27 06:16:53 51°13.665 2°55.96 17.2995 0.069845 0.426262 -0.338911
2010-10-27 06:16:58 51°13.665 2°55.96 17.3068 0.069845 0.426254 -0.373735
2010-10-27 06:17:03 51°13.665 2°55.961 17.305 0.069845 0.426254 -0.373735
2010-10-27 06:17:08 51°13.665 2°55.96 17.3072 0.069845 0.426254 -0.373735
2010-10-27 06:17:13 51°13.665 2°55.961 17.304 0.069845 0.426254 -0.338911
2010-10-27 06:17:18 51°13.665 2°55.961 17.3031 0.069845 0.426262 -0.338911
2010-10-27 06:17:23 51°13.665 2°55.961 17.3067 0.069845 0.426262 -0.338911
2010-10-27 06:17:28 51°13.665 2°55.961 17.3071 0.069845 0.426262 -0.373735
2010-10-27 06:17:33 51°13.664 2°55.961 17.3094 0.069845 0.426262 -0.338911
2010-10-27 06:17:38 51°13.664 2°55.96 17.3105 0.069845 0.426262 -0.373735
2010-10-27 06:17:43 51°13.664 2°55.96 17.312 0.069845 0.426254 -0.338911
2010-10-27 06:17:48 51°13.664 2°55.96 17.313 0.069845 0.426254 -0.338911
2010-10-27 06:17:53 51°13.663 2°55.96 17.3168 0.069845 0.426254 -0.338911
2010-10-27 06:17:59 51°13.663 2°55.96 17.3197 0.069845 0.426262 -0.338911
2010-10-27 06:18:03 51°13.663 2°55.96 17.3212 0.069845 0.426262 -0.373735
2010-10-27 06:18:08 51°13.663 2°55.96 17.3239 0.069845 0.426262 -0.373735
2010-10-27 06:18:13 51°13.663 2°55.96 17.325 0.069845 0.426262 -0.373735
2010-10-27 06:18:18 51°13.663 2°55.96 17.3255 0.069845 0.426262 -0.338911
2010-10-27 06:18:23 51°13.663 2°55.96 17.3233 0.069845 0.426262 -0.338911
2010-10-27 06:18:28 51°13.663 2°55.96 17.3237 0.069845 0.426262 -0.373735
2010-10-27 06:18:33 51°13.663 2°55.96 17.3224 0.069845 0.426262 -0.373735
2010-10-27 06:18:39 51°13.663 2°55.96 17.3216 0.069845 0.426262 -0.373735
2010-10-27 06:18:43 51°13.663 2°55.96 17.3266 0.069845 0.426254 -0.373735
2010-10-27 06:18:48 51°13.663 2°55.96 17.3281 0.069845 0.426262 -0.373735
2010-10-27 06:18:53 51°13.663 2°55.96 17.3258 0.069845 0.426262 -0.373735
2010-10-27 06:18:58 51°13.663 2°55.96 17.3248 0.069845 0.426262 -0.373735
2010-10-27 06:19:03 51°13.663 2°55.96 17.3271 0.069845 0.426262 -0.373735
2010-10-27 06:19:08 51°13.663 2°55.96 17.3245 0.069845 0.426262 -0.373735
2010-10-27 06:19:13 51°13.663 2°55.96 17.3237 0.069845 0.426262 -0.338911
2010-10-27 06:19:18 51°13.663 2°55.96 17.325 0.069845 0.426262 -0.373735
2010-10-27 06:19:23 51°13.663 2°55.96 17.3193 0.069845 0.426262 -0.373735
2010-10-27 06:19:28 51°13.663 2°55.96 17.3192 0.069845 0.426262 -0.338911
2010-10-27 06:19:33 51°13.663 2°55.96 17.3181 0.069845 0.42627 -0.373735
2010-10-27 06:19:38 51°13.663 2°55.961 17.319 0.069845 0.426254 -0.373735
2010-10-27 06:19:43 51°13.663 2°55.961 17.3166 0.069845 0.426262 -0.338911
2010-10-27 06:19:48 51°13.663 2°55.961 17.315 0.069845 0.426262 -0.373735
2010-10-27 06:19:53 51°13.663 2°55.961 17.318 0.069845 0.426262 -0.373735
2010-10-27 06:19:58 51°13.663 2°55.961 17.317 0.069845 0.426262 -0.373735
2010-10-27 06:20:03 51°13.663 2°55.961 17.321 0.069845 0.426262 -0.373735
2010-10-27 06:20:08 51°13.662 2°55.961 17.3195 0.069845 0.426262 -0.373735
2010-10-27 06:20:14 51°13.663 2°55.961 17.3221 0.069845 0.426262 -0.373735
2010-10-27 06:20:18 51°13.663 2°55.961 17.3264 0.069845 0.426262 -0.373735
2010-10-27 06:20:22 51°13.663 2°55.961 17.3283 0.069845 0.426262 -0.373735
2010-10-27 06:20:28 51°13.662 2°55.961 17.325 0.069845 0.426262 -0.373735
2010-10-27 06:20:33 51°13.662 2°55.96 17.323 0.069845 0.42627 -0.373735
2010-10-27 06:20:38 51°13.662 2°55.961 17.3229 0.069845 0.42627 -0.373735
2010-10-27 06:20:43 51°13.662 2°55.961 17.3212 0.069845 0.42627 -0.373735
2010-10-27 06:20:48 51°13.662 2°55.96 17.322 0.069845 0.42627 -0.338911
2010-10-27 06:20:53 51°13.662 2°55.96 17.322 0.069845 0.42627 -0.338911
2010-10-27 06:20:58 51°13.662 2°55.96 17.3219 0.069845 0.426262 -0.373735
2010-10-27 06:21:02 51°13.662 2°55.96 17.3222 0.069845 0.426262 -0.373735
2010-10-27 06:21:08 51°13.662 2°55.96 17.3228 0.069845 0.426262 -0.373735
2010-10-27 06:21:13 51°13.661 2°55.96 17.3185 0.069845 0.426262 -0.373735
2010-10-27 06:21:18 51°13.661 2°55.96 17.3156 0.069845 0.426262 -0.373735
2010-10-27 06:21:23 51°13.661 2°55.961 17.3164 0.069845 0.426262 -0.373735
2010-10-27 06:21:28 51°13.66 2°55.961 17.3138 0.069845 0.426254 -0.373735
2010-10-27 06:21:33 51°13.66 2°55.961 17.315 0.069845 0.426254 -0.373735
2010-10-27 06:21:37 51°13.66 2°55.961 17.2997 0.069845 0.426254 -0.408559
2010-10-27 06:21:43 51°13.66 2°55.961 17.2629 0.069845 0.426254 -0.373735
2010-10-27 06:21:48 51°13.66 2°55.959 17.2409 0.069845 0.426254 -0.373735
2010-10-27 06:21:53 51°13.661 2°55.959 17.2267 0.069845 0.426254 -0.373735
2010-10-27 06:21:58 51°13.661 2°55.957 17.2357 0.069845 0.426262 -0.338911
2010-10-27 06:22:03 51°13.661 2°55.955 17.3079 0.069845 0.426254 -0.373735
2010-10-27 06:22:08 51°13.662 2°55.952 17.278 0.069845 0.426262 -0.338911
2010-10-27 06:22:13 51°13.663 2°55.949 17.3042 0.069845 0.426262 -0.373735
2010-10-27 06:22:19 51°13.665 2°55.944 17.3273 0.069845 0.426262 -0.373735
2010-10-27 06:22:24 51°13.666 2°55.94 17.3116 0.069845 0.426262 -0.373735
2010-10-27 06:22:30 51°13.668 2°55.934 17.2988 0.069845 0.426262 -0.373735
2010-10-27 06:22:35 51°13.669 2°55.928 17.3188 0.069845 0.426262 -0.373735
2010-10-27 06:22:41 51°13.671 2°55.921 17.2999 0.069845 0.426262 -0.338911
2010-10-27 06:22:47 51°13.674 2°55.913 17.3268 0.069845 0.426262 -0.338911
2010-10-27 06:22:52 51°13.676 2°55.907 17.3264 0.069845 0.426262 -0.373735
2010-10-27 06:22:57 51°13.678 2°55.899 17.3177 0.069845 0.426262 -0.373735
2010-10-27 06:23:02 51°13.68 2°55.892 17.3515 0.069845 0.426262 -0.373735
2010-10-27 06:23:07 51°13.682 2°55.884 17.3433 0.069845 0.426262 -0.373735
2010-10-27 06:23:12 51°13.685 2°55.877 17.3397 0.069845 0.426262 -0.373735
2010-10-27 06:23:17 51°13.687 2°55.869 17.3459 0.069845 0.426262 -0.373735
2010-10-27 06:23:22 51°13.689 2°55.862 17.3443 0.069845 0.426262 -0.338911
2010-10-27 06:23:27 51°13.691 2°55.854 17.3324 0.069845 0.426262 -0.338911
2010-10-27 06:23:32 51°13.693 2°55.846 17.3218 0.069845 0.426262 -0.338911
2010-10-27 06:23:37 51°13.694 2°55.839 17.325 0.069845 0.426262 -0.373735
2010-10-27 06:23:42 51°13.695 2°55.831 17.3221 0.069845 0.426262 -0.373735
2010-10-27 06:23:47 51°13.697 2°55.823 17.3193 0.069845 0.426262 -0.373735
2010-10-27 06:23:52 51°13.697 2°55.816 17.3206 0.069845 0.426262 -0.338911
2010-10-27 06:23:57 51°13.698 2°55.808 17.3135 0.069845 0.426262 -0.338911
2010-10-27 06:24:02 51°13.699 2°55.8 17.3133 0.069845 0.426254 -0.373735
2010-10-27 06:24:07 51°13.699 2°55.793 17.3142 0.069845 0.426254 -0.373735
2010-10-27 06:24:12 51°13.699 2°55.786 17.3105 0.069845 0.426262 -0.338911
2010-10-27 06:24:17 51°13.698 2°55.779 17.3092 0.069845 0.426262 -0.373735
2010-10-27 06:24:22 51°13.698 2°55.772 17.3132 0.069845 0.426262 -0.338911
2010-10-27 06:24:27 51°13.698 2°55.765 17.3169 0.069845 0.426262 -0.338911
2010-10-27 06:24:32 51°13.697 2°55.758 17.3193 0.069845 0.426262 -0.338911
2010-10-27 06:24:37 51°13.696 2°55.752 17.3434 0.069845 0.426262 -0.373735
2010-10-27 06:24:42 51°13.695 2°55.746 17.3506 0.069845 0.426262 -0.373735
2010-10-27 06:24:47 51°13.695 2°55.74 17.3365 0.069845 0.426254 -0.338911
2010-10-27 06:24:52 51°13.694 2°55.736 17.3456 0.069845 0.426246 -0.373735
2010-10-27 06:24:57 51°13.695 2°55.734 17.4429 0.069845 0.426246 -0.373735
2010-10-27 06:25:02 51°13.695 2°55.733 17.4052 0.069845 0.426238 -0.373735
2010-10-27 06:25:07 51°13.696 2°55.732 17.4193 0.069845 0.426238 -0.373735
2010-10-27 06:25:12 51°13.696 2°55.733 17.4167 0.069845 0.426238 -0.408559
2010-10-27 06:25:17 51°13.698 2°55.734 17.4653 0.069845 0.426238 -0.373735
2010-10-27 06:25:22 51°13.7 2°55.735 17.4688 0.069845 0.426262 -0.338911
2010-10-27 06:25:27 51°13.702 2°55.737 17.466 0.069845 0.426262 -0.338911
2010-10-27 06:25:31 51°13.704 2°55.739 17.4148 0.069845 0.426254 -0.373735
2010-10-27 06:25:36 51°13.707 2°55.741 17.379 0.069845 0.42627 -0.373735
2010-10-27 06:25:41 51°13.71 2°55.742 17.3399 0.069845 0.426278 -0.408559
2010-10-27 06:25:46 51°13.712 2°55.743 17.3221 0.069845 0.426278 -0.338911
2010-10-27 06:25:51 51°13.714 2°55.744 17.3494 0.069845 0.426278 -0.373735
2010-10-27 06:25:55 51°13.714 2°55.745 17.364 0.069845 0.426278 -0.373735
2010-10-27 06:26:00 51°13.715 2°55.745 17.2834 0.069845 0.426294 -0.373735
2010-10-27 06:26:05 51°13.715 2°55.745 17.3307 0.069845 0.426294 -0.373735
2010-10-27 06:26:10 51°13.715 2°55.745 17.3347 0.069845 0.426286 -0.373735
2010-10-27 06:26:15 51°13.714 2°55.745 17.3206 0.069845 0.426294 -0.373735
2010-10-27 06:26:19 51°13.713 2°55.745 17.3325 0.069845 0.42627 -0.373735
2010-10-27 06:26:25 51°13.711 2°55.744 17.3405 0.069845 0.42627 -0.373735
2010-10-27 06:26:31 51°13.709 2°55.744 17.3619 0.069845 0.426254 -0.373735
2010-10-27 06:26:36 51°13.708 2°55.743 17.4126 0.069845 0.426238 -0.373735
2010-10-27 06:26:42 51°13.708 2°55.743 17.3917 0.069845 0.426222 -0.373735
2010-10-27 06:26:47 51°13.71 2°55.743 17.4203 0.069845 0.426191 -0.373735
2010-10-27 06:26:52 51°13.712 2°55.743 17.4278 0.069845 0.426207 -0.338911
2010-10-27 06:26:57 51°13.715 2°55.742 17.4336 0.069845 0.426207 -0.338911
2010-10-27 06:27:02 51°13.718 2°55.74 17.4286 0.069845 0.426207 -0.373735
2010-10-27 06:27:07 51°13.721 2°55.738 17.4275 0.069845 0.42623 -0.373735
2010-10-27 06:27:11 51°13.725 2°55.736 17.4112 0.069845 0.426238 -0.373735
2010-10-27 06:27:16 51°13.729 2°55.732 17.4039 0.069845 0.426254 -0.373735
2010-10-27 06:27:21 51°13.734 2°55.728 17.3934 0.069845 0.42627 -0.338911
2010-10-27 06:27:26 51°13.74 2°55.723 17.3783 0.069845 0.42627 -0.338911
2010-10-27 06:27:31 51°13.746 2°55.717 17.3433 0.069845 0.426294 -0.338911
2010-10-27 06:27:35 51°13.751 2°55.712 14.6908 0.069845 0.426286 -0.373735
2010-10-27 06:27:41 51°13.759 2°55.704 13.4892 0.069845 0.426103 -0.373735
2010-10-27 06:27:45 51°13.764 2°55.698 12.722 0.069949 0.425494 -0.478207
2010-10-27 06:27:50 51°13.772 2°55.691 12.3463 0.069845 0.424476 -0.547855
2010-10-27 06:27:55 51°13.779 2°55.684 11.89 0.069845 0.424476 -0.547855
2010-10-27 06:28:00 51°13.787 2°55.677 11.7442 0.071094 0.426367 0.113802
2010-10-27 06:28:05 51°13.796 2°55.669 11.5421 1.586914 11.312334 0.044153
2010-10-27 06:28:10 51°13.804 2°55.661 11.3788 2.418026 17.951568 0.044153
2010-10-27 06:28:15 51°13.813 2°55.654 11.3314 2.929547 22.55866 0.18345
2010-10-27 06:28:19 51°13.821 2°55.647 11.3144 2.96526 23.254627 0.322746
2010-10-27 06:28:24 51°13.83 2°55.639 11.233 2.96526 23.254627 0.322746
2010-10-27 06:28:29 51°13.84 2°55.631 11.2213 3.003504 24.05802 0.322746
2010-10-27 06:28:34 51°13.85 2°55.623 11.2239 3.225718 26.505223 0.253098
2010-10-27 06:28:39 51°13.86 2°55.615 11.1418 3.249015 27.159926 0.218274
2010-10-27 06:28:43 51°13.869 2°55.608 11.0862 3.248175 27.39813 0.218274
2010-10-27 06:28:49 51°13.882 2°55.598 11.126 3.232898 27.484302 0.218274
2010-10-27 06:28:54 51°13.893 2°55.59 11.0901 3.232898 27.484302 0.218274
2010-10-27 06:28:59 51°13.904 2°55.581 11.0515 3.212035 27.441856 0.18345
2010-10-27 06:29:03 51°13.913 2°55.575 11.0465 3.211193 27.545928 0.18345
2010-10-27 06:29:08 51°13.924 2°55.567 11.0231 3.212037 27.637444 0.18345
2010-10-27 06:29:13 51°13.936 2°55.559 11.0082 3.185061 27.428342 0.18345
2010-10-27 06:29:19 51°13.95 2°55.548 11.012 3.217308 27.808749 0.148626
2010-10-27 06:29:23 51°13.959 2°55.542 10.9829 3.217308 27.808749 0.148626
2010-10-27 06:29:28 51°13.971 2°55.533 10.9884 3.202766 27.701278 0.148626
2010-10-27 06:29:33 51°13.983 2°55.525 11.0009 3.224264 27.941214 0.18345
2010-10-27 06:29:39 51°13.997 2°55.515 10.9869 3.099611 26.775022 0.148626
2010-10-27 06:29:44 51°14.01 2°55.506 10.9701 3.221736 27.969938 0.148626
2010-10-27 06:29:49 51°14.022 2°55.497 10.9683 3.226162 28.042077 0.113802
2010-10-27 06:29:54 51°14.034 2°55.489 10.9433 3.226162 28.042077 0.113802
2010-10-27 06:29:59 51°14.046 2°55.48 10.9222 3.233539 28.138534 0.078977
2010-10-27 06:30:04 51°14.058 2°55.472 10.9604 3.245448 28.262981 0.113802
2010-10-27 06:30:10 51°14.073 2°55.462 10.9231 3.241127 28.234173 0.078977
2010-10-27 06:30:15 51°14.086 2°55.453 10.9079 3.241549 28.243734 0.113802
2010-10-27 06:30:21 51°14.101 2°55.443 10.912 3.250085 28.337078 0.078977
2010-10-27 06:30:27 51°14.117 2°55.433 10.8904 3.250085 28.337078 0.078977
2010-10-27 06:30:32 51°14.129 2°55.425 10.9079 3.250507 28.349123 0.113802
2010-10-27 06:30:37 51°14.142 2°55.416 10.8909 3.243973 28.298946 0.044153
2010-10-27 06:30:42 51°14.154 2°55.407 10.8531 3.236596 28.241215 0.044153
2010-10-27 06:30:47 51°14.167 2°55.398 10.8817 3.223951 28.125876 0.078977
2010-10-27 06:30:52 51°14.18 2°55.389 10.8483 3.21394 28.041445 0.044153
2010-10-27 06:30:57 51°14.193 2°55.379 10.8501 3.21394 28.041445 0.044153
2010-10-27 06:31:02 51°14.206 2°55.369 10.8562 3.200451 27.919188 0.078977
2010-10-27 06:31:07 51°14.218 2°55.358 10.8322 3.19866 27.91402 0.044153
2010-10-27 06:31:11 51°14.229 2°55.349 10.833 3.196342 27.898916 0.044153
2010-10-27 06:31:16 51°14.241 2°55.337 10.8354 3.202348 27.964187 0.044153
2010-10-27 06:31:21 51°14.253 2°55.325 10.8043 3.205615 28.007297 0.078977
2010-10-27 06:31:26 51°14.266 2°55.313 10.7984 3.205615 28.007297 0.078977
2010-10-27 06:31:31 51°14.278 2°55.3 10.8306 3.215732 28.106294 0.044153
2010-10-27 06:31:35 51°14.288 2°55.29 10.781 3.21647 28.12871 0.078977
2010-10-27 06:31:41 51°14.304 2°55.274 10.7919 3.215943 28.130955 0.044153
2010-10-27 06:31:46 51°14.317 2°55.26 10.7821 3.211517 28.093024 0.044153
2010-10-27 06:31:51 51°14.33 2°55.247 10.7716 3.199398 27.980675 0.044153
2010-10-27 06:31:57 51°14.346 2°55.23 10.7802 3.199398 27.980675 0.044153
2010-10-27 06:32:02 51°14.36 2°55.217 10.7791 3.187386 27.873011 0.044153
2010-10-27 06:32:07 51°14.373 2°55.204 10.773 3.178007 27.788999 0.044153
2010-10-27 06:32:12 51°14.387 2°55.19 10.78 3.171158 27.730037 0.044153
2010-10-27 06:32:17 51°14.401 2°55.177 10.7809 3.162307 27.655328 0.078977
2010-10-27 06:32:22 51°14.414 2°55.164 10.7929 3.158725 27.626114 0.044153
2010-10-27 06:32:27 51°14.428 2°55.149 10.7841 3.158725 27.626114 0.044153
2010-10-27 06:32:32 51°14.442 2°55.135 10.7854 3.158514 27.632507 0.078977
2010-10-27 06:32:37 51°14.457 2°55.12 10.7844 3.169262 27.744334 0.078977
2010-10-27 06:32:42 51°14.471 2°55.106 10.7905 3.183698 27.884093 0.113802
2010-10-27 06:32:47 51°14.485 2°55.09 10.793 3.208462 28.128341 0.113802
2010-10-27 06:32:51 51°14.496 2°55.08 10.7992 3.234912 28.384978 0.078977
2010-10-27 06:32:56 51°14.511 2°55.065 10.8127 3.234912 28.384978 0.078977
2010-10-27 06:33:01 51°14.526 2°55.049 10.7816 3.249456 28.526834 0.148626
2010-10-27 06:33:06 51°14.541 2°55.034 10.7698 3.268847 28.71154 0.113802
2010-10-27 06:33:11 51°14.554 2°55.017 10.78 3.291612 28.936125 0.148626
2010-10-27 06:33:15 51°14.565 2°55.001 10.7762 3.304259 29.057986 0.148626
2010-10-27 06:33:20 51°14.579 2°54.982 10.7678 3.305734 29.066647 0.148626
2010-10-27 06:33:25 51°14.594 2°54.964 10.7719 3.305734 29.066647 0.148626
2010-10-27 06:33:30 51°14.608 2°54.947 10.7663 3.31775 29.185577 0.113802
2010-10-27 06:33:35 51°14.623 2°54.929 10.7885 3.315325 29.162598 0.148626
2010-10-27 06:33:40 51°14.637 2°54.912 10.7629 3.317855 29.187241 0.148626
2010-10-27 06:33:44 51°14.65 2°54.898 10.7425 3.317539 29.189893 0.148626
2010-10-27 06:33:49 51°14.664 2°54.879 10.7425 3.318488 29.202961 0.148626
2010-10-27 06:33:55 51°14.682 2°54.858 10.7334 3.318488 29.202961 0.148626
2010-10-27 06:33:59 51°14.694 2°54.844 10.741 3.310899 29.127741 0.113802
2010-10-27 06:34:04 51°14.709 2°54.827 10.7331 3.298673 29.011827 0.148626
2010-10-27 06:34:09 51°14.724 2°54.809 10.7237 3.301203 29.042167 0.113802
2010-10-27 06:34:15 51°14.742 2°54.787 10.7237 3.298462 29.018643 0.148626
2010-10-27 06:34:20 51°14.757 2°54.768 10.725 3.302994 29.069142 0.148626
2010-10-27 06:34:24 51°14.769 2°54.754 10.7238 3.302994 29.069142 0.148626
2010-10-27 06:34:29 51°14.784 2°54.737 10.7232 3.314799 29.188673 0.18345
2010-10-27 06:34:34 51°14.799 2°54.719 10.7335 3.337881 29.417103 0.148626
2010-10-27 06:34:39 51°14.814 2°54.701 10.7548 3.345681 29.501002 0.113802
2010-10-27 06:34:44 51°14.829 2°54.683 10.7628 3.35327 29.580971 0.148626
2010-10-27 06:34:49 51°14.844 2°54.666 10.7671 3.357381 29.621155 0.148626
2010-10-27 06:34:54 51°14.859 2°54.648 10.7529 3.357381 29.621155 0.148626
2010-10-27 06:34:59 51°14.874 2°54.63 10.7682 3.360122 29.65119 0.148626
2010-10-27 06:35:05 51°14.892 2°54.61 10.7725 3.363916 29.692843 0.113802
2010-10-27 06:35:11 51°14.911 2°54.589 10.7818 3.342203 29.484426 0.113802
2010-10-27 06:35:16 51°14.926 2°54.572 10.773 3.368765 29.735723 0.113802
2010-10-27 06:35:22 51°14.944 2°54.551 10.792 3.384576 29.884563 0.113802
2010-10-27 06:35:27 51°14.959 2°54.534 10.7734 3.384576 29.884563 0.113802
2010-10-27 06:35:31 51°14.97 2°54.52 10.7727 3.396066 29.996386 0.078977
2010-10-27 06:35:36 51°14.985 2°54.503 10.8028 3.406607 30.091074 0.148626
2010-10-27 06:35:41 51°15 2°54.485 10.7964 3.420205 30.220327 0.148626
2010-10-27 06:35:46 51°15.015 2°54.467 10.8134 3.422419 30.240696 0.113802
2010-10-27 06:35:51 51°15.03 2°54.45 10.806 3.436544 30.374506 0.113802
2010-10-27 06:35:55 51°15.042 2°54.435 10.8157 3.436544 30.374506 0.113802
2010-10-27 06:36:00 51°15.057 2°54.418 10.8214 3.446981 30.472179 0.113802
2010-10-27 06:36:05 51°15.072 2°54.401 10.8192 3.443713 30.443461 0.078977
2010-10-27 06:36:10 51°15.087 2°54.384 10.8208 3.453517 30.536949 0.113802
2010-10-27 06:36:15 51°15.102 2°54.367 10.8263 3.459947 30.596027 0.113802
2010-10-27 06:36:20 51°15.117 2°54.35 10.817 3.464269 30.631744 0.078977
2010-10-27 06:36:24 51°15.129 2°54.336 10.8123 3.464269 30.631744 0.078977
2010-10-27 06:36:29 51°15.144 2°54.318 10.808 3.467959 30.663926 0.113802
2010-10-27 06:36:34 51°15.16 2°54.301 10.806 3.472387 30.702006 0.078977
2010-10-27 06:36:39 51°15.175 2°54.284 10.7991 3.479661 30.766666 0.078977
2010-10-27 06:36:44 51°15.19 2°54.267 10.7914 3.473968 30.708133 0.078977
2010-10-27 06:36:49 51°15.206 2°54.249 10.7957 3.47692 30.731051 0.078977
2010-10-27 06:36:54 51°15.221 2°54.232 10.7897 3.47692 30.731051 0.078977
2010-10-27 06:36:59 51°15.236 2°54.215 10.7882 3.475128 30.716826 0.044153
2010-10-27 06:37:03 51°15.249 2°54.201 10.7886 3.481348 30.782545 0.078977
2010-10-27 06:37:07 51°15.261 2°54.186 10.7922 3.478607 30.760351 0.044153
2010-10-27 06:37:13 51°15.279 2°54.166 10.798 3.475655 30.732058 0.009329
2010-10-27 06:37:18 51°15.294 2°54.148 10.8005 3.475233 30.728592 0.044153
2010-10-27 06:37:23 51°15.31 2°54.131 10.8001 3.475233 30.728592 0.044153
2010-10-27 06:37:28 51°15.325 2°54.113 10.8125 3.470911 30.686856 0.044153
2010-10-27 06:37:33 51°15.34 2°54.096 10.8286 3.471227 30.698003 0.044153
2010-10-27 06:37:38 51°15.354 2°54.077 10.8486 3.466378 30.653099 0.009329
2010-10-27 06:37:43 51°15.369 2°54.059 10.8679 3.461529 30.604187 0.009329
2010-10-27 06:37:48 51°15.384 2°54.04 10.8854 3.4668 30.655228 0.009329
2010-10-27 06:37:53 51°15.399 2°54.022 10.9044 3.4668 30.655228 0.009329
2010-10-27 06:37:58 51°15.413 2°54.003 10.9141 3.467221 30.655347 0.044153
2010-10-27 06:38:03 51°15.428 2°53.984 10.922 3.456468 30.554556 0.009329
2010-10-27 06:38:08 51°15.442 2°53.966 10.9271 3.468697 30.669157 -0.025495
2010-10-27 06:38:14 51°15.46 2°53.944 10.9359 3.475549 30.725657 0.044153
2010-10-27 06:38:19 51°15.474 2°53.925 10.9391 3.482191 30.779398 -0.025495
2010-10-27 06:38:23 51°15.486 2°53.911 10.9501 3.482191 30.779398 -0.025495
2010-10-27 06:38:28 51°15.5 2°53.892 10.9552 3.49189 30.858397 0.009329
2010-10-27 06:38:33 51°15.515 2°53.874 10.9552 3.487884 30.8097 0.044153
2010-10-27 06:38:39 51°15.532 2°53.851 10.954 3.51308 31.035199 0.009329
2010-10-27 06:38:43 51°15.544 2°53.837 10.9574 3.525099 31.148353 0.044153
2010-10-27 06:38:48 51°15.559 2°53.818 10.9473 3.522042 31.103452 0.044153
2010-10-27 06:38:53 51°15.573 2°53.8 10.9463 3.522042 31.103452 0.044153
2010-10-27 06:38:59 51°15.59 2°53.777 10.9391 3.533112 31.211341 0.009329
2010-10-27 06:39:03 51°15.602 2°53.763 10.9202 3.537435 31.242864 0.009329
2010-10-27 06:39:08 51°15.616 2°53.745 10.9111 3.546396 31.315782 0.044153
2010-10-27 06:39:13 51°15.631 2°53.726 10.8994 3.550508 31.359522 0.009329
2010-10-27 06:39:18 51°15.645 2°53.709 10.8891 3.549454 31.347815 0.009329
2010-10-27 06:39:23 51°15.66 2°53.69 10.8759 3.549454 31.347815 0.009329
2010-10-27 06:39:28 51°15.675 2°53.672 10.8785 3.553671 31.384407 -0.025495
2010-10-27 06:39:33 51°15.689 2°53.653 10.8584 3.552933 31.378533 -0.025495
2010-10-27 06:39:38 51°15.704 2°53.636 10.8592 3.553144 31.384697 -0.025495
2010-10-27 06:39:43 51°15.718 2°53.618 10.8561 3.551773 31.373299 -0.060319
2010-10-27 06:39:48 51°15.733 2°53.599 10.8434 3.546924 31.342089 -0.025495
2010-10-27 06:39:53 51°15.748 2°53.581 10.8426 3.546924 31.342089 -0.025495
2010-10-27 06:39:58 51°15.762 2°53.563 10.8459 3.541125 31.297452 -0.060319
2010-10-27 06:40:03 51°15.777 2°53.545 10.8434 3.538068 31.279706 -0.060319
2010-10-27 06:40:08 51°15.791 2°53.527 10.8401 3.535326 31.251433 -0.095143
2010-10-27 06:40:13 51°15.807 2°53.511 10.8422 3.529739 31.209507 -0.060319
2010-10-27 06:40:18 51°15.823 2°53.493 10.841 3.5251 31.170082 -0.060319
2010-10-27 06:40:23 51°15.838 2°53.476 10.8375 3.5251 31.170082 -0.060319
2010-10-27 06:40:28 51°15.854 2°53.46 10.8512 3.525416 31.179985 -0.060319
2010-10-27 06:40:33 51°15.869 2°53.445 10.8475 3.519617 31.130516 -0.060319
2010-10-27 06:40:39 51°15.888 2°53.426 10.8569 3.521094 31.151806 -0.095143
2010-10-27 06:40:43 51°15.9 2°53.414 10.8528 3.520777 31.145302 -0.095143
2010-10-27 06:40:48 51°15.916 2°53.399 10.8577 3.517509 31.117956 -0.025495
2010-10-27 06:40:53 51°15.932 2°53.383 10.8601 3.517509 31.117956 -0.025495
2010-10-27 06:40:59 51°15.951 2°53.366 10.8609 3.520039 31.14213 -0.060319
2010-10-27 06:41:03 51°15.964 2°53.354 10.862 3.513608 31.080324 -0.025495
2010-10-27 06:41:08 51°15.98 2°53.339 10.8568 3.518036 31.123133 -0.025495
2010-10-27 06:41:13 51°15.995 2°53.324 10.8609 3.517825 31.118346 -0.025495
2010-10-27 06:41:18 51°16.012 2°53.309 10.8614 3.514241 31.081111 -0.060319
2010-10-27 06:41:23 51°16.028 2°53.294 10.8663 3.514241 31.081111 -0.060319
2010-10-27 06:41:28 51°16.044 2°53.278 10.8659 3.51772 31.116632 -0.060319
2010-10-27 06:41:33 51°16.059 2°53.264 10.8723 3.516138 31.096353 -0.060319
2010-10-27 06:41:38 51°16.076 2°53.249 10.8672 3.519301 31.129447 -0.060319
2010-10-27 06:41:43 51°16.092 2°53.233 10.8768 3.517193 31.103991 -0.060319
2010-10-27 06:41:48 51°16.108 2°53.221 10.8742 3.510234 31.03433 -0.060319
2010-10-27 06:41:53 51°16.124 2°53.205 10.8924 3.510234 31.03433 -0.060319
2010-10-27 06:41:58 51°16.141 2°53.193 10.8949 3.522675 31.157824 -0.060319
2010-10-27 06:42:03 51°16.158 2°53.179 10.9069 3.513186 31.063305 -0.060319
2010-10-27 06:42:08 51°16.174 2°53.166 10.9198 3.519617 31.1278 -0.060319
2010-10-27 06:42:13 51°16.19 2°53.152 10.9267 3.523624 31.162385 -0.095143
2010-10-27 06:42:18 51°16.207 2°53.14 10.9315 3.516665 31.094069 -0.060319
2010-10-27 06:42:23 51°16.224 2°53.127 10.9425 3.516665 31.094069 -0.060319
2010-10-27 06:42:28 51°16.241 2°53.114 10.9469 3.524467 31.166589 -0.095143
2010-10-27 06:42:33 51°16.258 2°53.101 10.9555 3.525627 31.177297 -0.060319
2010-10-27 06:42:38 51°16.275 2°53.089 10.9644 3.527841 31.185438 -0.095143
2010-10-27 06:42:43 51°16.292 2°53.076 10.9675 3.518668 31.096781 -0.060319
2010-10-27 06:42:48 51°16.309 2°53.064 10.9747 3.533639 31.230112 -0.060319
2010-10-27 06:42:53 51°16.326 2°53.051 10.9747 3.533639 31.230112 -0.060319
2010-10-27 06:42:59 51°16.346 2°53.037 10.9777 3.531952 31.208119 -0.060319
2010-10-27 06:43:03 51°16.36 2°53.026 10.9804 3.529527 31.172108 -0.095143
2010-10-27 06:43:08 51°16.376 2°53.013 10.9839 3.539965 31.273809 -0.095143
2010-10-27 06:43:13 51°16.393 2°53.001 10.9878 3.540176 31.265668 -0.095143
2010-10-27 06:43:19 51°16.414 2°52.986 10.9932 3.539438 31.244832 -0.060319
2010-10-27 06:43:23 51°16.427 2°52.977 10.9987 3.539438 31.244832 -0.060319
2010-10-27 06:43:28 51°16.445 2°52.964 11.009 3.547134 31.319614 -0.060319
2010-10-27 06:43:33 51°16.461 2°52.951 11.0182 3.539965 31.247961 -0.060319
2010-10-27 06:43:38 51°16.478 2°52.938 11.028 3.543233 31.269801 -0.129967
2010-10-27 06:43:43 51°16.495 2°52.926 11.0379 3.551246 31.352438 -0.025495
2010-10-27 06:43:48 51°16.512 2°52.914 11.0463 3.548926 31.322884 -0.095143
2010-10-27 06:43:53 51°16.529 2°52.901 11.0548 3.548926 31.322884 -0.095143
2010-10-27 06:43:58 51°16.545 2°52.888 11.0655 3.549032 31.319832 -0.095143
2010-10-27 06:44:03 51°16.562 2°52.875 11.0745 3.55114 31.332328 -0.095143
2010-10-27 06:44:08 51°16.579 2°52.862 11.0805 3.555252 31.367173 -0.095143
2010-10-27 06:44:13 51°16.596 2°52.849 11.0862 3.559259 31.399616 -0.129967
2010-10-27 06:44:18 51°16.613 2°52.837 11.0936 3.558837 31.385258 -0.129967
2010-10-27 06:44:23 51°16.629 2°52.823 11.1024 3.558837 31.385258 -0.129967
2010-10-27 06:44:28 51°16.646 2°52.81 11.1145 3.563898 31.428014 -0.095143
2010-10-27 06:44:33 51°16.662 2°52.797 11.1252 3.569802 31.481758 -0.129967
2010-10-27 06:44:38 51°16.679 2°52.785 11.1322 3.573809 31.506653 -0.095143
2010-10-27 06:44:43 51°16.696 2°52.773 11.1411 3.572649 31.488463 -0.129967
2010-10-27 06:44:48 51°16.713 2°52.761 11.1489 3.578237 31.532926 -0.095143
2010-10-27 06:44:53 51°16.73 2°52.749 11.1538 3.578237 31.532926 -0.095143
2010-10-27 06:44:59 51°16.75 2°52.734 11.1613 3.581611 31.561856 -0.164791
2010-10-27 06:45:03 51°16.763 2°52.724 11.1645 3.579818 31.534054 -0.129967
2010-10-27 06:45:08 51°16.78 2°52.712 11.1671 3.585828 31.583297 -0.129967
2010-10-27 06:45:13 51°16.796 2°52.699 11.1701 3.591627 31.632518 -0.129967
2010-10-27 06:45:18 51°16.813 2°52.687 11.1741 3.59226 31.629119 -0.129967
2010-10-27 06:45:23 51°16.83 2°52.674 11.1747 3.59226 31.629119 -0.129967
2010-10-27 06:45:28 51°16.846 2°52.662 11.1786 3.584141 31.546287 -0.095143
2010-10-27 06:45:33 51°16.863 2°52.648 11.1795 3.599008 31.67869 -0.129967
2010-10-27 06:45:39 51°16.883 2°52.632 11.179 3.601011 31.688001 -0.129967
2010-10-27 06:45:43 51°16.896 2°52.622 11.1789 3.60196 31.69591 -0.095143
2010-10-27 06:45:48 51°16.913 2°52.609 11.1797 3.603542 31.70589 -0.129967
2010-10-27 06:45:53 51°16.93 2°52.596 11.1825 3.603542 31.70589 -0.129967
2010-10-27 06:45:58 51°16.947 2°52.584 11.1873 3.605545 31.720678 -0.095143
2010-10-27 06:46:03 51°16.964 2°52.572 11.1949 3.602909 31.694221 -0.095143
2010-10-27 06:46:08 51°16.98 2°52.559 11.2027 3.60428 31.703509 -0.129967
2010-10-27 06:46:13 51°16.997 2°52.547 11.2112 3.606916 31.73065 -0.129967
2010-10-27 06:46:18 51°17.014 2°52.534 11.2212 3.604701 31.702149 -0.164791
2010-10-27 06:46:23 51°17.031 2°52.521 11.2291 3.604701 31.702149 -0.164791
2010-10-27 06:46:28 51°17.048 2°52.509 11.2358 3.607548 31.731348 -0.129967
2010-10-27 06:46:33 51°17.064 2°52.496 11.2429 3.606916 31.728592 -0.129967
2010-10-27 06:46:38 51°17.081 2°52.483 11.2486 3.610184 31.74751 -0.129967
2010-10-27 06:46:43 51°17.098 2°52.47 11.2588 3.613558 31.780489 -0.164791
2010-10-27 06:46:48 51°17.115 2°52.458 11.2673 3.618725 31.825497 -0.164791
2010-10-27 06:46:53 51°17.131 2°52.445 11.2825 3.618725 31.825497 -0.164791
2010-10-27 06:46:58 51°17.148 2°52.432 11.2989 3.617143 31.797671 -0.129967
2010-10-27 06:47:03 51°17.165 2°52.419 11.3152 3.618303 31.806257 -0.129967
2010-10-27 06:47:08 51°17.182 2°52.406 11.332 3.616616 31.785656 -0.095143
2010-10-27 06:47:13 51°17.199 2°52.393 11.3569 3.623153 31.840589 -0.164791
2010-10-27 06:47:19 51°17.219 2°52.378 11.382 3.612925 31.734536 -0.095143
2010-10-27 06:47:23 51°17.232 2°52.368 11.4103 3.612925 31.734536 -0.095143
2010-10-27 06:47:28 51°17.249 2°52.354 11.4298 3.613347 31.732491 -0.129967
2010-10-27 06:47:33 51°17.265 2°52.341 11.445 3.628109 31.86631 -0.164791
2010-10-27 06:47:39 51°17.286 2°52.326 11.4767 3.625578 31.823759 -0.164791
2010-10-27 06:47:43 51°17.299 2°52.315 11.4956 3.632116 31.877936 -0.164791
2010-10-27 06:47:48 51°17.316 2°52.302 11.5154 3.630217 31.838155 -0.129967
2010-10-27 06:47:53 51°17.333 2°52.29 11.5354 3.630217 31.838155 -0.129967
2010-10-27 06:47:58 51°17.35 2°52.277 11.5464 3.639391 31.911121 -0.129967
2010-10-27 06:48:03 51°17.366 2°52.264 11.5613 3.641183 31.91143 -0.164791
2010-10-27 06:48:08 51°17.383 2°52.252 11.5699 3.643503 31.904535 -0.129967
2010-10-27 06:48:13 51°17.4 2°52.238 11.5845 3.638547 31.83646 -0.129967
2010-10-27 06:48:18 51°17.416 2°52.225 11.5887 3.643291 31.858003 -0.129967
2010-10-27 06:48:23 51°17.433 2°52.211 11.5983 3.643291 31.858003 -0.129967
2010-10-27 06:48:28 51°17.449 2°52.199 11.6064 3.655734 31.957749 -0.129967
2010-10-27 06:48:33 51°17.466 2°52.185 11.6119 3.663115 32.013041 -0.164791
2010-10-27 06:48:38 51°17.483 2°52.172 11.6141 3.665962 32.022192 -0.129967
2010-10-27 06:48:43 51°17.499 2°52.159 11.6197 3.665646 32.003363 -0.164791
2010-10-27 06:48:48 51°17.515 2°52.145 11.6252 3.665751 31.992067 -0.095143
2010-10-27 06:48:53 51°17.532 2°52.133 11.6297 3.665751 31.992067 -0.095143
2010-10-27 06:48:58 51°17.549 2°52.118 11.6346 3.663325 31.952816 -0.129967
2010-10-27 06:49:03 51°17.566 2°52.107 11.6358 3.67714 32.077924 -0.129967
2010-10-27 06:49:08 51°17.583 2°52.093 11.6385 3.681147 32.11063 -0.129967
2010-10-27 06:49:14 51°17.602 2°52.076 11.6406 3.681252 32.09931 -0.129967
2010-10-27 06:49:19 51°17.619 2°52.064 11.6425 3.67967 32.077121 -0.129967
2010-10-27 06:49:23 51°17.632 2°52.053 11.644 3.67967 32.077121 -0.129967
2010-10-27 06:49:28 51°17.649 2°52.04 11.645 3.685997 32.128184 -0.129967
2010-10-27 06:49:34 51°17.668 2°52.023 11.6447 3.686314 32.128509 -0.129967
2010-10-27 06:49:39 51°17.685 2°52.011 11.6434 3.687263 32.132224 -0.129967
2010-10-27 06:49:43 51°17.699 2°52.001 11.6433 3.687052 32.124011 -0.095143
2010-10-27 06:49:48 51°17.715 2°51.988 11.645 3.674503 31.997659 -0.095143
2010-10-27 06:49:53 51°17.732 2°51.975 11.6463 3.674503 31.997659 -0.095143
2010-10-27 06:49:59 51°17.752 2°51.961 11.6427 3.680935 32.066116 -0.129967
2010-10-27 06:50:03 51°17.765 2°51.95 11.6442 3.688633 32.129746 -0.129967
2010-10-27 06:50:08 51°17.781 2°51.937 11.6424 3.688317 32.130792 -0.129967
2010-10-27 06:50:13 51°17.798 2°51.924 11.6392 3.689055 32.133148 -0.129967
2010-10-27 06:50:18 51°17.815 2°51.912 11.6403 3.688001 32.124301 -0.129967
2010-10-27 06:50:23 51°17.832 2°51.899 11.6382 3.688001 32.124301 -0.129967
2010-10-27 06:50:28 51°17.848 2°51.886 11.6382 3.693801 32.179128 -0.129967
2010-10-27 06:50:33 51°17.865 2°51.873 11.6389 3.69243 32.167216 -0.129967
2010-10-27 06:50:38 51°17.882 2°51.861 11.6406 3.692535 32.168238 -0.095143
2010-10-27 06:50:43 51°17.898 2°51.848 11.6379 3.68547 32.096361 -0.129967
2010-10-27 06:50:48 51°17.915 2°51.835 11.6401 3.693801 32.183932 -0.129967
2010-10-27 06:50:53 51°17.932 2°51.823 11.6423 3.693801 32.183932 -0.129967
2010-10-27 06:50:58 51°17.949 2°51.809 11.6444 3.681041 32.056198 -0.129967
2010-10-27 06:51:03 51°17.966 2°51.797 11.6478 3.696859 32.208078 -0.129967
2010-10-27 06:51:08 51°17.982 2°51.784 11.6515 3.694328 32.186983 -0.095143
2010-10-27 06:51:14 51°18.003 2°51.77 11.6534 3.696859 32.210139 -0.095143
2010-10-27 06:51:19 51°18.02 2°51.756 11.6558 3.692219 32.163115 -0.129967
2010-10-27 06:51:23 51°18.033 2°51.746 11.6579 3.692219 32.163115 -0.129967
2010-10-27 06:51:28 51°18.05 2°51.733 11.6597 3.694855 32.188661 -0.095143
2010-10-27 06:51:33 51°18.067 2°51.72 11.6611 3.697913 32.221047 -0.129967
2010-10-27 06:51:39 51°18.087 2°51.705 11.6621 3.69127 32.153919 -0.129967
2010-10-27 06:51:43 51°18.1 2°51.694 11.6648 3.697808 32.214529 -0.095143
2010-10-27 06:51:48 51°18.117 2°51.682 11.6675 3.694855 32.183171 -0.095143
2010-10-27 06:51:54 51°18.137 2°51.666 11.6707 3.694855 32.183171 -0.095143
2010-10-27 06:51:59 51°18.153 2°51.653 11.6729 3.693484 32.167832 -0.095143
2010-10-27 06:52:03 51°18.167 2°51.643 11.6745 3.692324 32.156594 -0.060319
2010-10-27 06:52:08 51°18.183 2°51.629 11.6767 3.687684 32.106175 -0.095143
2010-10-27 06:52:13 51°18.2 2°51.617 11.6789 3.696648 32.19162 -0.129967
2010-10-27 06:52:19 51°18.22 2°51.601 11.6798 3.696859 32.194349 -0.095143
2010-10-27 06:52:23 51°18.233 2°51.59 11.6812 3.696859 32.194349 -0.095143
2010-10-27 06:52:28 51°18.25 2°51.577 11.6819 3.698862 32.211701 -0.129967
2010-10-27 06:52:33 51°18.267 2°51.564 11.6824 3.682938 32.052713 -0.129967
2010-10-27 06:52:38 51°18.283 2°51.551 11.6834 3.690004 32.119059 -0.095143
2010-10-27 06:52:43 51°18.3 2°51.538 11.6837 3.693062 32.147299 -0.060319
2010-10-27 06:52:48 51°18.317 2°51.525 11.6845 3.688317 32.099989 -0.095143
2010-10-27 06:52:53 51°18.333 2°51.512 11.6859 3.688317 32.099989 -0.095143
2010-10-27 06:52:58 51°18.35 2°51.499 11.6851 3.679669 32.016981 -0.060319
2010-10-27 06:53:03 51°18.366 2°51.486 11.6863 3.695382 32.163597 -0.095143
2010-10-27 06:53:08 51°18.383 2°51.473 11.6885 3.691164 32.122078 -0.095143
2010-10-27 06:53:13 51°18.4 2°51.46 11.6871 3.692851 32.135673 -0.095143
2010-10-27 06:53:18 51°18.417 2°51.447 11.6874 3.687473 32.082938 -0.095143
2010-10-27 06:53:23 51°18.434 2°51.434 11.6874 3.687473 32.082938 -0.095143
2010-10-27 06:53:28 51°18.451 2°51.421 11.6855 3.691796 32.122045 -0.095143
2010-10-27 06:53:34 51°18.471 2°51.405 11.682 3.679036 32.001996 -0.095143
2010-10-27 06:53:39 51°18.487 2°51.392 11.6787 3.698229 32.181569 -0.095143
2010-10-27 06:53:43 51°18.501 2°51.382 11.6749 3.693695 32.14247 -0.060319
2010-10-27 06:53:48 51°18.517 2°51.368 11.6748 3.689687 32.101634 -0.060319
2010-10-27 06:53:53 51°18.534 2°51.355 11.67 3.689687 32.101634 -0.060319
2010-10-27 06:53:59 51°18.554 2°51.338 11.6684 3.68336 32.040413 -0.060319
2010-10-27 06:54:03 51°18.567 2°51.328 11.6669 3.693273 32.133597 -0.060319
2010-10-27 06:54:08 51°18.584 2°51.315 11.667 3.682622 32.02918 -0.095143
2010-10-27 06:54:14 51°18.605 2°51.299 11.6664 3.694222 32.14552 -0.095143
2010-10-27 06:54:19 51°18.621 2°51.285 11.6672 3.693167 32.133945 -0.095143
2010-10-27 06:54:23 51°18.635 2°51.275 11.6663 3.693167 32.133945 -0.095143
2010-10-27 06:54:28 51°18.651 2°51.261 11.6657 3.685153 32.062537 -0.095143
2010-10-27 06:54:33 51°18.668 2°51.248 11.6639 3.690953 32.123457 -0.095143
2010-10-27 06:54:39 51°18.689 2°51.232 11.6614 3.691797 32.128887 -0.060319
2010-10-27 06:54:43 51°18.702 2°51.222 11.6592 3.694222 32.158531 -0.095143
2010-10-27 06:54:48 51°18.719 2°51.209 11.6569 3.695066 32.166701 -0.095143
2010-10-27 06:54:53 51°18.736 2°51.196 11.6562 3.695066 32.166701 -0.095143
2010-10-27 06:54:58 51°18.752 2°51.183 11.6551 3.693378 32.151733 -0.095143
2010-10-27 06:55:03 51°18.768 2°51.169 11.6535 3.696753 32.183725 -0.095143
2010-10-27 06:55:08 51°18.786 2°51.156 11.6502 3.697913 32.192216 -0.060319
2010-10-27 06:55:13 51°18.802 2°51.144 11.6472 3.68452 32.067341 -0.095143
2010-10-27 06:55:18 51°18.819 2°51.129 11.6455 3.695909 32.177612 -0.060319
2010-10-27 06:55:23 51°18.835 2°51.116 11.6429 3.695909 32.177612 -0.060319
2010-10-27 06:55:28 51°18.852 2°51.104 11.6359 3.693062 32.15415 -0.060319
2010-10-27 06:55:33 51°18.869 2°51.09 11.6366 3.697702 32.199091 -0.095143
2010-10-27 06:55:38 51°18.885 2°51.078 11.6329 3.694855 32.176312 -0.095143
2010-10-27 06:55:43 51°18.901 2°51.064 11.632 3.699179 32.216825 -0.060319
2010-10-27 06:55:48 51°18.917 2°51.051 11.6247 3.697913 32.206625 -0.095143
2010-10-27 06:55:54 51°18.937 2°51.035 11.6252 3.697913 32.206625 -0.095143
2010-10-27 06:55:59 51°18.953 2°51.021 11.6288 3.701182 32.241048 -0.060319
2010-10-27 06:56:03 51°18.967 2°51.011 11.636 3.699284 32.224028 -0.095143
2010-10-27 06:56:08 51°18.983 2°50.996 11.64 3.697913 32.213491 -0.060319
2010-10-27 06:56:13 51°19.001 2°50.985 11.646 3.689899 32.13858 -0.060319
2010-10-27 06:56:19 51°19.02 2°50.967 11.6512 3.696332 32.205715 -0.060319
2010-10-27 06:56:23 51°19.034 2°50.958 11.6498 3.696332 32.205715 -0.060319
2010-10-27 06:56:28 51°19.05 2°50.943 11.6533 3.700444 32.24558 -0.060319
2010-10-27 06:56:34 51°19.07 2°50.927 11.6553 3.696226 32.208814 -0.095143
2010-10-27 06:56:39 51°19.087 2°50.914 11.658 3.696648 32.212216 -0.060319
2010-10-27 06:56:43 51°19.1 2°50.903 11.658 3.696859 32.214261 -0.060319
2010-10-27 06:56:48 51°19.116 2°50.89 11.6604 3.688528 32.13078 -0.060319
2010-10-27 06:56:53 51°19.133 2°50.876 11.6614 3.688528 32.13078 -0.060319
2010-10-27 06:56:59 51°19.154 2°50.86 11.6633 3.692851 32.167874 -0.060319
2010-10-27 06:57:03 51°19.167 2°50.85 11.6625 3.683571 32.073872 -0.060319
2010-10-27 06:57:08 51°19.184 2°50.836 11.6657 3.691164 32.15084 -0.060319
2010-10-27 06:57:13 51°19.201 2°50.824 11.6656 3.689371 32.125253 -0.025495
2010-10-27 06:57:18 51°19.217 2°50.811 11.6656 3.682622 32.058531 -0.025495
2010-10-27 06:57:23 51°19.234 2°50.798 11.6649 3.682622 32.058531 -0.025495
2010-10-27 06:57:28 51°19.251 2°50.784 11.6649 3.682939 32.058861 -0.025495
2010-10-27 06:57:33 51°19.267 2°50.772 11.6607 3.678826 32.014955 -0.025495
2010-10-27 06:57:38 51°19.284 2°50.758 11.6568 3.681989 32.047624 -0.060319
2010-10-27 06:57:43 51°19.3 2°50.745 11.6495 3.686629 32.091176 -0.025495
2010-10-27 06:57:48 51°19.317 2°50.732 11.6436 3.674397 31.972094 -0.060319
2010-10-27 06:57:53 51°19.334 2°50.719 11.6307 3.674397 31.972094 -0.060319
2010-10-27 06:57:58 51°19.351 2°50.706 11.631 3.672393 31.949985 -0.060319
2010-10-27 06:58:03 51°19.367 2°50.692 11.6232 3.673342 31.960529 -0.060319
2010-10-27 06:58:08 51°19.383 2°50.679 11.6205 3.683044 32.053734 -0.060319
2010-10-27 06:58:14 51°19.404 2°50.663 11.6178 3.679669 32.024485 -0.025495
2010-10-27 06:58:19 51°19.42 2°50.651 11.6095 3.682306 32.050686 -0.025495
2010-10-27 06:58:23 51°19.434 2°50.64 11.6029 3.682306 32.050686 -0.025495
2010-10-27 06:58:28 51°19.45 2°50.626 11.6029 3.67988 32.034035 -0.025495
2010-10-27 06:58:33 51°19.467 2°50.613 11.5945 3.67872 32.024853 -0.025495
2010-10-27 06:58:39 51°19.487 2°50.597 11.5985 3.676928 32.015004 -0.060319
2010-10-27 06:58:43 51°19.5 2°50.586 11.5903 3.666488 31.918701 -0.060319
2010-10-27 06:58:48 51°19.517 2°50.573 11.5901 3.671444 31.970092 -0.060319
2010-10-27 06:58:53 51°19.534 2°50.56 11.5882 3.671444 31.970092 -0.060319
2010-10-27 06:58:59 51°19.555 2°50.545 11.5886 3.657841 31.844518 -0.060319
2010-10-27 06:59:03 51°19.568 2°50.534 11.589 3.670917 31.977262 -0.025495
2010-10-27 06:59:08 51°19.584 2°50.522 11.5883 3.667648 31.951052 -0.025495
2010-10-27 06:59:13 51°19.6 2°50.507 11.5805 3.664801 31.926879 -0.025495
2010-10-27 06:59:18 51°19.617 2°50.494 11.5762 3.666488 31.943905 -0.060319
2010-10-27 06:59:23 51°19.634 2°50.481 11.5754 3.666488 31.943905 -0.060319
2010-10-27 06:59:28 51°19.651 2°50.467 11.5562 3.655416 31.843458 -0.060319
2010-10-27 06:59:33 51°19.668 2°50.454 11.5508 3.649827 31.790692 -0.025495
2010-10-27 06:59:38 51°19.684 2°50.44 11.5401 3.667227 31.957195 -0.025495
2010-10-27 06:59:43 51°19.701 2°50.427 11.5355 3.667754 31.965716 -0.060319
2010-10-27 06:59:48 51°19.718 2°50.413 11.5283 3.650776 31.80124 -0.095143
2010-10-27 06:59:53 51°19.734 2°50.4 11.5236 3.650776 31.80124 -0.095143
2010-10-27 06:59:58 51°19.752 2°50.385 11.5085 3.661216 31.912583 -0.060319
2010-10-27 07:00:03 51°19.769 2°50.372 11.5016 3.663958 31.937793 -0.095143
2010-10-27 07:00:08 51°19.786 2°50.357 11.4909 3.658264 31.888055 -0.060319
2010-10-27 07:00:13 51°19.801 2°50.344 11.4876 3.655733 31.872378 -0.060319
2010-10-27 07:00:18 51°19.819 2°50.33 11.4799 3.655311 31.875782 -0.060319
2010-10-27 07:00:23 51°19.835 2°50.316 11.48 3.655311 31.875782 -0.060319
2010-10-27 07:00:28 51°19.852 2°50.302 11.4727 3.655311 31.885322 -0.095143
2010-10-27 07:00:34 51°19.873 2°50.287 11.4765 3.649512 31.831802 -0.095143
2010-10-27 07:00:39 51°19.889 2°50.273 11.4686 3.641181 31.76326 -0.060319
2010-10-27 07:00:43 51°19.903 2°50.264 11.4622 3.643396 31.788815 -0.095143
2010-10-27 07:00:48 51°19.92 2°50.25 11.4677 3.639916 31.760501 -0.060319
2010-10-27 07:00:53 51°19.936 2°50.236 11.4649 3.639916 31.760501 -0.060319
2010-10-27 07:00:59 51°19.956 2°50.22 11.4594 3.637069 31.744434 -0.060319
2010-10-27 07:01:03 51°19.97 2°50.209 11.4589 3.636648 31.747137 -0.060319
2010-10-27 07:01:08 51°19.987 2°50.196 11.4546 3.630848 31.701046 -0.060319
2010-10-27 07:01:13 51°20.004 2°50.182 11.4575 3.636226 31.745763 -0.060319
2010-10-27 07:01:19 51°20.024 2°50.166 11.4543 3.629794 31.691492 -0.060319
2010-10-27 07:01:23 51°20.037 2°50.156 11.4549 3.629794 31.691492 -0.060319
2010-10-27 07:01:28 51°20.054 2°50.142 11.452 3.624732 31.646445 -0.060319
2010-10-27 07:01:33 51°20.07 2°50.129 11.4497 3.628739 31.690083 -0.095143
2010-10-27 07:01:38 51°20.087 2°50.114 11.4545 3.620409 31.612623 -0.095143
2010-10-27 07:01:43 51°20.104 2°50.102 11.4489 3.620831 31.618072 -0.060319
2010-10-27 07:01:48 51°20.12 2°50.087 11.4508 3.634855 31.7549 -0.060319
2010-10-27 07:01:53 51°20.137 2°50.074 11.4449 3.634855 31.7549 -0.060319
2010-10-27 07:01:58 51°20.154 2°50.06 11.449 3.635804 31.762755 -0.095143
2010-10-27 07:02:03 51°20.171 2°50.047 11.4464 3.634328 31.751822 -0.025495
2010-10-27 07:02:08 51°20.187 2°50.033 11.4481 3.633379 31.743286 -0.025495
2010-10-27 07:02:13 51°20.204 2°50.021 11.4478 3.633801 31.748743 -0.025495
2010-10-27 07:02:18 51°20.221 2°50.007 11.4484 3.633274 31.746344 -0.025495
2010-10-27 07:02:23 51°20.237 2°49.994 11.4477 3.633274 31.746344 -0.025495
2010-10-27 07:02:28 51°20.254 2°49.98 11.4502 3.631059 31.723478 -0.025495
2010-10-27 07:02:33 51°20.271 2°49.967 11.4546 3.632746 31.747348 -0.060319
2010-10-27 07:02:38 51°20.287 2°49.953 11.4549 3.630638 31.726862 -0.060319
2010-10-27 07:02:43 51°20.304 2°49.94 11.458 3.627896 31.696156 -0.060319
2010-10-27 07:02:48 51°20.321 2°49.927 11.4611 3.631481 31.731655 -0.060319
2010-10-27 07:02:54 51°20.341 2°49.91 11.4604 3.631481 31.731655 -0.060319
2010-10-27 07:02:59 51°20.358 2°49.897 11.4655 3.630216 31.719365 -0.025495
2010-10-27 07:03:03 51°20.371 2°49.885 11.4713 3.630637 31.715983 -0.060319
2010-10-27 07:03:08 51°20.388 2°49.872 11.4723 3.629583 31.71322 -0.060319
2010-10-27 07:03:13 51°20.405 2°49.858 11.4769 3.630848 31.72483 -0.060319
2010-10-27 07:03:19 51°20.425 2°49.842 11.483 3.632008 31.736775 -0.060319
2010-10-27 07:03:23 51°20.439 2°49.831 11.4855 3.632008 31.736775 -0.060319
2010-10-27 07:03:28 51°20.455 2°49.817 11.4887 3.632219 31.731341 -0.060319
2010-10-27 07:03:33 51°20.472 2°49.804 11.4966 3.632008 31.730654 -0.060319
2010-10-27 07:03:38 51°20.49 2°49.792 11.4993 3.631692 31.727582 -0.060319
2010-10-27 07:03:43 51°20.506 2°49.779 11.5076 3.633168 31.735116 -0.060319
2010-10-27 07:03:48 51°20.523 2°49.765 11.5118 3.633906 31.737523 -0.095143
2010-10-27 07:03:53 51°20.54 2°49.751 11.5135 3.633906 31.737523 -0.095143
2010-10-27 07:03:58 51°20.556 2°49.738 11.5172 3.634222 31.738554 -0.095143
2010-10-27 07:04:03 51°20.57 2°49.72 11.5234 3.636015 31.749155 -0.060319
2010-10-27 07:04:08 51°20.584 2°49.701 11.5314 3.633801 31.726983 -0.095143
2010-10-27 07:04:13 51°20.595 2°49.679 11.5384 3.634011 31.722236 -0.060319
2010-10-27 07:04:18 51°20.606 2°49.657 11.5455 3.637702 31.750572 -0.095143
2010-10-27 07:04:23 51°20.614 2°49.632 11.5522 3.637702 31.750572 -0.095143
2010-10-27 07:04:28 51°20.623 2°49.607 11.5604 3.638651 31.7625 -0.060319
2010-10-27 07:04:33 51°20.631 2°49.581 11.5766 3.639811 31.768995 -0.095143
2010-10-27 07:04:38 51°20.638 2°49.554 11.5935 3.644556 31.80551 -0.095143
2010-10-27 07:04:43 51°20.646 2°49.528 11.6281 3.646243 31.821879 -0.095143
2010-10-27 07:04:48 51°20.652 2°49.501 11.6498 3.645188 31.802802 -0.129967
2010-10-27 07:04:53 51°20.659 2°49.473 11.6728 3.645188 31.802802 -0.129967
2010-10-27 07:04:58 51°20.666 2°49.446 11.6968 3.646665 31.815079 -0.129967
2010-10-27 07:05:03 51°20.673 2°49.419 11.7119 3.652148 31.857367 -0.129967
2010-10-27 07:05:08 51°20.679 2°49.391 11.7345 3.650566 31.836582 -0.129967
2010-10-27 07:05:14 51°20.687 2°49.357 11.7491 3.654784 31.872032 -0.129967
2010-10-27 07:05:19 51°20.694 2°49.329 11.771 3.657631 31.875795 -0.129967
2010-10-27 07:05:23 51°20.699 2°49.307 11.7889 3.657631 31.875795 -0.129967
2010-10-27 07:05:28 51°20.706 2°49.279 11.7989 3.665539 31.937437 -0.129967
2010-10-27 07:05:33 51°20.712 2°49.251 11.8109 3.668914 31.952401 -0.129967
2010-10-27 07:05:39 51°20.72 2°49.218 11.8284 3.673026 31.967684 -0.129967
2010-10-27 07:05:43 51°20.724 2°49.196 11.839 3.676611 31.977853 -0.095143
2010-10-27 07:05:48 51°20.731 2°49.167 11.852 3.665433 31.857551 -0.129967
2010-10-27 07:05:53 51°20.737 2°49.139 11.8636 3.665433 31.857551 -0.129967
2010-10-27 07:05:59 51°20.745 2°49.106 11.8746 3.684203 32.013812 -0.129967
2010-10-27 07:06:03 51°20.751 2°49.084 11.8897 3.690214 32.060319 -0.129967
2010-10-27 07:06:08 51°20.757 2°49.056 11.8996 3.696014 32.097948 -0.095143
2010-10-27 07:06:13 51°20.764 2°49.028 11.9124 3.697279 32.093809 -0.129967
2010-10-27 07:06:18 51°20.771 2°49 11.9207 3.699072 32.094765 -0.129967
2010-10-27 07:06:23 51°20.777 2°48.971 11.9279 3.699072 32.094765 -0.129967
2010-10-27 07:06:28 51°20.784 2°48.943 11.9432 3.701497 32.100464 -0.164791
2010-10-27 07:06:33 51°20.79 2°48.915 11.9532 3.70698 32.14042 -0.164791
2010-10-27 07:06:38 51°20.797 2°48.887 11.9585 3.71046 32.157628 -0.164791
2010-10-27 07:06:43 51°20.804 2°48.859 11.9687 3.711304 32.15963 -0.164791
2010-10-27 07:06:48 51°20.81 2°48.832 11.9746 3.713307 32.164639 -0.129967
2010-10-27 07:06:54 51°20.819 2°48.799 11.9839 3.713307 32.164639 -0.129967
2010-10-27 07:06:58 51°20.825 2°48.777 11.9932 3.716155 32.179817 -0.129967
2010-10-27 07:07:03 51°20.833 2°48.751 12.0064 3.717525 32.185533 -0.129967
2010-10-27 07:07:08 51°20.842 2°48.724 12.014 3.716787 32.170255 -0.129967
2010-10-27 07:07:13 51°20.852 2°48.699 12.0268 3.721427 32.199278 -0.164791
2010-10-27 07:07:18 51°20.862 2°48.675 12.0342 3.724169 32.218183 -0.164791
2010-10-27 07:07:23 51°20.873 2°48.651 12.0465 3.724169 32.218183 -0.164791
2010-10-27 07:07:28 51°20.884 2°48.626 12.0551 3.72554 32.216402 -0.164791
2010-10-27 07:07:33 51°20.895 2°48.603 12.0594 3.727438 32.22854 -0.129967
2010-10-27 07:07:39 51°20.91 2°48.576 12.0759 3.727332 32.21868 -0.129967
2010-10-27 07:07:43 51°20.919 2°48.557 12.0832 3.729336 32.222307 -0.199615
2010-10-27 07:07:48 51°20.932 2°48.536 12.0906 3.731972 32.239492 -0.129967
2010-10-27 07:07:53 51°20.944 2°48.514 12.1051 3.731972 32.239492 -0.129967
2010-10-27 07:07:59 51°20.96 2°48.488 12.1162 3.735874 32.268834 -0.164791
2010-10-27 07:08:03 51°20.971 2°48.471 12.1257 3.739987 32.298153 -0.164791
2010-10-27 07:08:08 51°20.985 2°48.45 12.1433 3.738194 32.2714 -0.164791
2010-10-27 07:08:13 51°20.998 2°48.43 12.1575 3.741463 32.29056 -0.129967
2010-10-27 07:08:18 51°21.012 2°48.409 12.1659 3.74315 32.297242 -0.199615
2010-10-27 07:08:23 51°21.025 2°48.389 12.1706 3.74315 32.297242 -0.199615
2010-10-27 07:08:28 51°21.039 2°48.369 12.1783 3.746947 32.327573 -0.164791
2010-10-27 07:08:33 51°21.052 2°48.347 12.186 3.748318 32.325765 -0.164791
2010-10-27 07:08:38 51°21.066 2°48.326 12.1954 3.749478 32.327376 -0.164791
2010-10-27 07:08:43 51°21.079 2°48.306 12.2015 3.753274 32.35292 -0.164791
2010-10-27 07:08:48 51°21.093 2°48.285 12.2118 3.755594 32.362931 -0.164791
2010-10-27 07:08:53 51°21.107 2°48.264 12.2193 3.755594 32.362931 -0.164791
2010-10-27 07:08:58 51°21.12 2°48.243 12.2253 3.760657 32.402633 -0.164791
2010-10-27 07:09:03 51°21.134 2°48.223 12.2341 3.758758 32.372864 -0.164791
2010-10-27 07:09:08 51°21.148 2°48.203 12.242 3.766246 32.434436 -0.164791
2010-10-27 07:09:14 51°21.164 2°48.178 12.2453 3.765824 32.424265 -0.129967
2010-10-27 07:09:18 51°21.175 2°48.162 12.2521 3.768671 32.441342 -0.129967
2010-10-27 07:09:23 51°21.189 2°48.141 12.2573 3.768671 32.441342 -0.129967
2010-10-27 07:09:28 51°21.203 2°48.121 12.2626 3.765718 32.406248 -0.129967
2010-10-27 07:09:33 51°21.215 2°48.099 12.2693 3.771097 32.44212 -0.129967
2010-10-27 07:09:38 51°21.229 2°48.079 12.2725 3.771941 32.448839 -0.129967
2010-10-27 07:09:43 51°21.242 2°48.058 12.2761 3.773733 32.453081 -0.164791
2010-10-27 07:09:48 51°21.256 2°48.036 12.2809 3.775737 32.462739 -0.129967
2010-10-27 07:09:54 51°21.272 2°48.011 12.2878 3.775737 32.462739 -0.129967
2010-10-27 07:09:59 51°21.285 2°47.99 12.2939 3.779323 32.488894 -0.164791
2010-10-27 07:10:03 51°21.296 2°47.974 12.3066 3.777741 32.469674 -0.164791
2010-10-27 07:10:08 51°21.31 2°47.952 12.3104 3.778057 32.465223 -0.164791
2010-10-27 07:10:13 51°21.323 2°47.932 12.3187 3.779428 32.475619 -0.129967
2010-10-27 07:10:19 51°21.34 2°47.906 12.3219 3.77869 32.465838 -0.129967
2010-10-27 07:10:23 51°21.351 2°47.89 12.3292 3.77869 32.465838 -0.129967
2010-10-27 07:10:28 51°21.365 2°47.868 12.3325 3.781854 32.488622 -0.164791
2010-10-27 07:10:33 51°21.378 2°47.848 12.3383 3.784174 32.506732 -0.129967
2010-10-27 07:10:38 51°21.392 2°47.826 12.3409 3.785439 32.513393 -0.129967
2010-10-27 07:10:43 51°21.405 2°47.805 12.3475 3.786916 32.516628 -0.129967
2010-10-27 07:10:48 51°21.418 2°47.783 12.3531 3.786705 32.511892 -0.129967
2010-10-27 07:10:53 51°21.431 2°47.762 12.357 3.786705 32.511892 -0.129967
2010-10-27 07:10:58 51°21.443 2°47.74 12.3633 3.790818 32.543727 -0.095143
2010-10-27 07:11:03 51°21.456 2°47.719 12.3712 3.792611 32.551338 -0.129967
2010-10-27 07:11:08 51°21.469 2°47.698 12.3743 3.790185 32.522041 -0.129967
2010-10-27 07:11:13 51°21.482 2°47.677 12.3792 3.795037 32.564311 -0.095143
2010-10-27 07:11:18 51°21.494 2°47.655 12.3842 3.794826 32.560255 -0.095143
2010-10-27 07:11:23 51°21.508 2°47.635 12.388 3.794826 32.560255 -0.095143
2010-10-27 07:11:28 51°21.52 2°47.613 12.392 3.79588 32.561488 -0.129967
2010-10-27 07:11:34 51°21.536 2°47.587 12.3947 3.795036 32.549351 -0.129967
2010-10-27 07:11:38 51°21.547 2°47.571 12.3945 3.800837 32.596585 -0.129967
2010-10-27 07:11:43 51°21.56 2°47.549 12.3974 3.803368 32.616673 -0.129967
2010-10-27 07:11:48 51°21.573 2°47.527 12.4 3.804106 32.618277 -0.129967
2010-10-27 07:11:54 51°21.588 2°47.501 12.402 3.804106 32.618277 -0.129967
2010-10-27 07:11:59 51°21.6 2°47.479 12.4029 3.804634 32.612423 -0.095143
2010-10-27 07:12:03 51°21.61 2°47.46 12.4048 3.80379 32.608451 -0.095143
2010-10-27 07:12:08 51°21.622 2°47.438 12.4063 3.807165 32.63182 -0.095143
2010-10-27 07:12:13 51°21.635 2°47.416 12.4073 3.807903 32.636144 -0.095143
2010-10-27 07:12:19 51°21.649 2°47.389 12.4089 3.808747 32.641474 -0.095143
2010-10-27 07:12:23 51°21.658 2°47.371 12.4112 3.808747 32.641474 -0.095143
2010-10-27 07:12:28 51°21.67 2°47.348 12.4124 3.808852 32.634314 -0.095143
2010-10-27 07:12:33 51°21.683 2°47.325 12.414 3.811173 32.66054 -0.129967
2010-10-27 07:12:39 51°21.697 2°47.298 12.4155 3.80938 32.642748 -0.095143
2010-10-27 07:12:43 51°21.707 2°47.279 12.4174 3.812333 32.668887 -0.095143
2010-10-27 07:12:48 51°21.719 2°47.257 12.4172 3.810856 32.650031 -0.095143
2010-10-27 07:12:53 51°21.731 2°47.234 12.4172 3.810856 32.650031 -0.095143
2010-10-27 07:12:58 51°21.743 2°47.211 12.4196 3.809907 32.643016 -0.095143
2010-10-27 07:13:03 51°21.755 2°47.188 12.4209 3.811067 32.647961 -0.095143
2010-10-27 07:13:08 51°21.767 2°47.165 12.4209 3.812544 32.660686 -0.095143
2010-10-27 07:13:13 51°21.779 2°47.142 12.4237 3.812227 32.652904 -0.060319
2010-10-27 07:13:18 51°21.791 2°47.12 12.424 3.809063 32.621365 -0.129967
2010-10-27 07:13:23 51°21.803 2°47.096 12.4244 3.809063 32.621365 -0.129967
2010-10-27 07:13:28 51°21.815 2°47.074 12.4265 3.813282 32.662284 -0.095143
2010-10-27 07:13:33 51°21.826 2°47.05 12.4292 3.814969 32.6777 -0.060319
2010-10-27 07:13:38 51°21.839 2°47.028 12.4315 3.812016 32.64749 -0.060319
2010-10-27 07:13:43 51°21.85 2°47.003 12.4344 3.807903 32.610981 -0.095143
2010-10-27 07:13:48 51°21.862 2°46.98 12.4367 3.815602 32.679651 -0.095143
2010-10-27 07:13:54 51°21.876 2°46.951 12.4368 3.815602 32.679651 -0.095143
2010-10-27 07:13:59 51°21.888 2°46.929 12.4388 3.814758 32.670242 -0.095143
2010-10-27 07:14:03 51°21.897 2°46.91 12.4403 3.81518 32.673585 -0.095143
2010-10-27 07:14:08 51°21.909 2°46.888 12.4435 3.813809 32.659148 -0.095143
2010-10-27 07:14:14 51°21.924 2°46.86 12.4465 3.81634 32.684651 -0.095143
2010-10-27 07:14:19 51°21.936 2°46.837 12.4481 3.820137 32.713372 -0.095143
2010-10-27 07:14:23 51°21.945 2°46.818 12.4503 3.820137 32.713372 -0.095143
2010-10-27 07:14:28 51°21.957 2°46.796 12.4535 3.813282 32.647998 -0.060319
2010-10-27 07:14:33 51°21.969 2°46.773 12.4541 3.818239 32.693905 -0.060319
2010-10-27 07:14:39 51°21.983 2°46.746 12.4568 3.819188 32.706363 -0.095143
2010-10-27 07:14:43 51°21.993 2°46.728 12.4597 3.819715 32.700495 -0.095143
2010-10-27 07:14:48 51°22.005 2°46.706 12.4611 3.82077 32.711232 -0.060319
2010-10-27 07:14:53 51°22.018 2°46.684 12.4632 3.82077 32.711232 -0.060319
2010-10-27 07:14:59 51°22.032 2°46.656 12.4667 3.818661 32.688397 -0.095143
2010-10-27 07:15:03 51°22.042 2°46.638 12.4694 3.821086 32.706077 -0.095143
2010-10-27 07:15:08 51°22.055 2°46.616 12.472 3.821825 32.711754 -0.095143
2010-10-27 07:15:13 51°22.067 2°46.592 12.4734 3.820348 32.69972 -0.060319
2010-10-27 07:15:18 51°22.079 2°46.57 12.4752 3.819188 32.685259 -0.060319
2010-10-27 07:15:23 51°22.091 2°46.548 12.4777 3.819188 32.685259 -0.060319
2010-10-27 07:15:28 51°22.103 2°46.525 12.48 3.822247 32.71169 -0.060319
2010-10-27 07:15:33 51°22.114 2°46.501 12.4815 3.822247 32.71169 -0.095143
2010-10-27 07:15:38 51°22.126 2°46.478 12.4847 3.823723 32.720317 -0.060319
2010-10-27 07:15:43 51°22.138 2°46.454 12.4885 3.823512 32.716264 -0.095143
2010-10-27 07:15:48 51°22.15 2°46.432 12.4897 3.8252 32.733709 -0.095143
2010-10-27 07:15:53 51°22.162 2°46.408 12.4926 3.8252 32.733709 -0.095143
2010-10-27 07:15:58 51°22.174 2°46.386 12.4942 3.825516 32.731958 -0.060319
2010-10-27 07:16:03 51°22.186 2°46.362 12.4959 3.827098 32.741586 -0.095143
2010-10-27 07:16:08 51°22.198 2°46.339 12.4981 3.825621 32.726154 -0.060319
2010-10-27 07:16:14 51°22.213 2°46.311 12.4997 3.827203 32.737824 -0.060319
2010-10-27 07:16:19 51°22.225 2°46.288 12.4994 3.826676 32.73348 -0.095143
2010-10-27 07:16:23 51°22.235 2°46.27 12.5005 3.826676 32.73348 -0.095143
2010-10-27 07:16:28 51°22.247 2°46.246 12.502 3.823512 32.697896 -0.060319
2010-10-27 07:16:34 51°22.261 2°46.219 12.5037 3.827836 32.736364 -0.060319
2010-10-27 07:16:39 51°22.274 2°46.198 12.505 3.823934 32.699195 -0.095143
2010-10-27 07:16:43 51°22.283 2°46.179 12.5086 3.822457 32.681055 -0.060319
2010-10-27 07:16:48 51°22.295 2°46.156 12.5125 3.829418 32.745988 -0.095143
2010-10-27 07:16:53 51°22.307 2°46.133 12.5151 3.829418 32.745988 -0.095143
2010-10-27 07:16:59 51°22.321 2°46.105 12.5166 3.827309 32.723857 -0.095143
2010-10-27 07:17:03 51°22.331 2°46.088 12.5188 3.829735 32.745598 -0.095143
2010-10-27 07:17:08 51°22.343 2°46.063 12.5223 3.829102 32.73685 -0.060319
2010-10-27 07:17:13 51°22.355 2°46.041 12.5249 3.830051 32.74657 -0.025495
2010-10-27 07:17:18 51°22.367 2°46.018 12.5265 3.829524 32.742909 -0.060319
2010-10-27 07:17:23 51°22.38 2°45.996 12.5291 3.829524 32.742909 -0.060319
2010-10-27 07:17:28 51°22.393 2°45.975 12.5308 3.828996 32.730404 -0.095143
2010-10-27 07:17:33 51°22.406 2°45.953 12.5331 3.824461 32.686548 -0.095143
2010-10-27 07:17:38 51°22.42 2°45.933 12.5331 3.832899 32.765519 -0.060319
2010-10-27 07:17:43 51°22.433 2°45.913 12.5355 3.826148 32.697857 -0.060319
2010-10-27 07:17:48 51°22.448 2°45.893 12.5368 3.835114 32.782523 -0.060319
2010-10-27 07:17:53 51°22.461 2°45.872 12.5389 3.835114 32.782523 -0.060319
2010-10-27 07:17:58 51°22.475 2°45.852 12.5395 3.826887 32.698091 -0.025495
2010-10-27 07:18:03 51°22.49 2°45.834 12.5406 3.832793 32.752266 -0.060319
2010-10-27 07:18:08 51°22.503 2°45.813 12.5424 3.835746 32.776973 -0.060319
2010-10-27 07:18:13 51°22.517 2°45.793 12.543 3.832687 32.741062 -0.025495
2010-10-27 07:18:18 51°22.532 2°45.774 12.5447 3.836063 32.771818 -0.095143
2010-10-27 07:18:23 51°22.545 2°45.753 12.5469 3.836063 32.771818 -0.095143
2010-10-27 07:18:28 51°22.559 2°45.735 12.5475 3.836168 32.776905 -0.060319
2010-10-27 07:18:34 51°22.576 2°45.712 12.5486 3.831633 32.733065 -0.060319
2010-10-27 07:18:39 51°22.591 2°45.695 12.5495 3.836695 32.773758 -0.025495
2010-10-27 07:18:43 51°22.603 2°45.679 12.5511 3.831949 32.731319 -0.060319
2010-10-27 07:18:48 51°22.617 2°45.661 12.5522 3.837539 32.781787 -0.060319
2010-10-27 07:18:53 51°22.632 2°45.642 12.5536 3.837539 32.781787 -0.060319
2010-10-27 07:18:59 51°22.65 2°45.621 12.5558 3.839754 32.800821 -0.025495
2010-10-27 07:19:03 51°22.662 2°45.607 12.5582 3.83775 32.783794 -0.025495
2010-10-27 07:19:08 51°22.678 2°45.591 12.5606 3.840282 32.803116 -0.025495
2010-10-27 07:19:13 51°22.694 2°45.574 12.563 3.837856 32.779354 -0.060319
2010-10-27 07:19:19 51°22.712 2°45.554 12.5658 3.835852 32.760289 -0.095143
2010-10-27 07:19:23 51°22.724 2°45.54 12.5677 3.835852 32.760289 -0.095143
2010-10-27 07:19:28 51°22.739 2°45.523 12.5711 3.836695 32.767636 -0.060319
2010-10-27 07:19:33 51°22.754 2°45.506 12.5738 3.842391 32.818421 -0.060319
2010-10-27 07:19:38 51°22.77 2°45.489 12.5767 3.834586 32.743492 -0.060319
2010-10-27 07:19:43 51°22.786 2°45.474 12.5806 3.842813 32.819711 -0.025495
2010-10-27 07:19:48 51°22.801 2°45.457 12.5841 3.843235 32.823044 -0.060319
2010-10-27 07:19:53 51°22.816 2°45.44 12.5866 3.843235 32.823044 -0.060319
2010-10-27 07:19:58 51°22.832 2°45.423 12.5886 3.844289 32.822182 -0.060319
2010-10-27 07:20:03 51°22.847 2°45.406 12.5909 3.844711 32.832324 -0.025495
2010-10-27 07:20:08 51°22.863 2°45.388 12.5935 3.843973 32.821896 -0.025495
2010-10-27 07:20:13 51°22.879 2°45.372 12.5957 3.846399 32.841566 -0.060319
2010-10-27 07:20:18 51°22.894 2°45.355 12.5984 3.837855 32.7576 -0.025495
2010-10-27 07:20:23 51°22.91 2°45.339 12.6009 3.837855 32.7576 -0.025495
2010-10-27 07:20:28 51°22.925 2°45.322 12.6041 3.844922 32.822755 -0.025495
2010-10-27 07:20:34 51°22.944 2°45.305 12.6052 3.84661 32.833357 -0.060319
2010-10-27 07:20:39 51°22.96 2°45.288 12.6075 3.840492 32.776553 -0.060319
2010-10-27 07:20:43 51°22.973 2°45.276 12.6111 3.847242 32.833929 -0.025495
2010-10-27 07:20:48 51°22.988 2°45.259 12.6135 3.848508 32.845282 -0.025495
2010-10-27 07:20:53 51°23.004 2°45.243 12.6161 3.848508 32.845282 -0.025495
2010-10-27 07:20:59 51°23.023 2°45.224 12.6196 3.848086 32.832423 -0.025495
2010-10-27 07:21:03 51°23.035 2°45.21 12.6218 3.85009 32.852834 -0.025495
2010-10-27 07:21:08 51°23.051 2°45.194 12.6236 3.850934 32.858131 -0.060319
2010-10-27 07:21:13 51°23.066 2°45.177 12.6258 3.848297 32.831706 -0.025495
2010-10-27 07:21:19 51°23.085 2°45.16 12.6274 3.851883 32.862388 -0.025495
2010-10-27 07:21:23 51°23.097 2°45.146 12.631 3.851883 32.862388 -0.025495
2010-10-27 07:21:28 51°23.113 2°45.129 12.6335 3.851883 32.8549 -0.025495
2010-10-27 07:21:33 51°23.128 2°45.112 12.6351 3.853571 32.873661 -0.060319
2010-10-27 07:21:39 51°23.146 2°45.093 12.6385 3.847031 32.808121 -0.025495
2010-10-27 07:21:43 51°23.159 2°45.079 12.64 3.853993 32.870181 -0.025495
2010-10-27 07:21:48 51°23.175 2°45.063 12.6423 3.853782 32.866815 -0.025495
2010-10-27 07:21:53 51°23.19 2°45.046 12.6444 3.853782 32.866815 -0.025495
2010-10-27 07:21:58 51°23.204 2°45.028 12.6461 3.846504 32.79428 -0.025495
2010-10-27 07:22:03 51°23.22 2°45.013 12.6481 3.854942 32.874435 -0.025495
2010-10-27 07:22:08 51°23.235 2°44.994 12.651 3.848086 32.805911 -0.025495
2010-10-27 07:22:13 51°23.25 2°44.977 12.6531 3.855153 32.870994 -0.025495
2010-10-27 07:22:18 51°23.266 2°44.96 12.6552 3.856418 32.878254 -0.025495
2010-10-27 07:22:23 51°23.28 2°44.942 12.6575 3.856418 32.878254 -0.025495
2010-10-27 07:22:28 51°23.296 2°44.924 12.6591 3.855785 32.874964 -0.025495
2010-10-27 07:22:33 51°23.311 2°44.908 12.6601 3.849879 32.811392 -0.060319
2010-10-27 07:22:38 51°23.327 2°44.891 12.6625 3.856524 32.87041 -0.025495
2010-10-27 07:22:43 51°23.343 2°44.876 12.665 3.856524 32.873812 -0.025495
2010-10-27 07:22:48 51°23.357 2°44.859 12.6672 3.856313 32.868407 -0.025495
2010-10-27 07:22:54 51°23.377 2°44.843 12.6685 3.856313 32.868407 -0.025495
2010-10-27 07:22:59 51°23.391 2°44.826 12.6711 3.853359 32.841044 0.009329
2010-10-27 07:23:03 51°23.405 2°44.815 12.6741 3.858 32.87831 -0.060319
2010-10-27 07:23:08 51°23.42 2°44.799 12.6784 3.852199 32.819841 -0.060319
2010-10-27 07:23:13 51°23.437 2°44.785 12.6816 3.852515 32.82556 -0.025495
2010-10-27 07:23:19 51°23.457 2°44.767 12.6845 3.860215 32.892537 -0.025495
2010-10-27 07:23:23 51°23.47 2°44.754 12.687 3.860215 32.892537 -0.025495
2010-10-27 07:23:28 51°23.486 2°44.739 12.6902 3.859055 32.876762 -0.025495
2010-10-27 07:23:33 51°23.503 2°44.724 12.6917 3.853676 32.827745 -0.060319
2010-10-27 07:23:39 51°23.522 2°44.706 12.6935 3.853992 32.825317 -0.025495
2010-10-27 07:23:43 51°23.535 2°44.694 12.6949 3.860426 32.884337 -0.025495
2010-10-27 07:23:48 51°23.551 2°44.68 12.6975 3.862219 32.899315 0.009329
2010-10-27 07:23:53 51°23.567 2°44.665 12.6998 3.862219 32.899315 0.009329
2010-10-27 07:23:58 51°23.583 2°44.651 12.7025 3.861481 32.889587 0.009329
2010-10-27 07:24:03 51°23.599 2°44.635 12.7046 3.862219 32.892514 -0.025495
2010-10-27 07:24:08 51°23.615 2°44.622 12.7073 3.855046 32.822431 -0.060319
2010-10-27 07:24:13 51°23.631 2°44.607 12.7094 3.857683 32.848123 -0.025495
2010-10-27 07:24:18 51°23.646 2°44.591 12.7129 3.860531 32.869027 -0.025495
2010-10-27 07:24:23 51°23.663 2°44.578 12.7134 3.860531 32.869027 -0.025495
2010-10-27 07:24:28 51°23.679 2°44.561 12.7162 3.864328 32.900971 -0.060319
2010-10-27 07:24:33 51°23.695 2°44.545 12.7173 3.858 32.842979 0.009329
2010-10-27 07:24:38 51°23.712 2°44.529 12.7171 3.859371 32.853269 -0.025495
2010-10-27 07:24:43 51°23.727 2°44.513 12.7175 3.865594 32.909578 -0.025495
2010-10-27 07:24:48 51°23.743 2°44.498 12.7178 3.867176 32.921186 -0.025495
2010-10-27 07:24:53 51°23.759 2°44.481 12.7194 3.867176 32.921186 -0.025495
2010-10-27 07:24:58 51°23.776 2°44.465 12.7217 3.861164 32.861449 0.009329
2010-10-27 07:25:03 51°23.791 2°44.45 12.7231 3.862113 32.867057 -0.025495
2010-10-27 07:25:08 51°23.807 2°44.433 12.7242 3.867598 32.914309 -0.025495
2010-10-27 07:25:14 51°23.826 2°44.414 12.7252 3.868442 32.922991 -0.025495
2010-10-27 07:25:19 51°23.842 2°44.398 12.7264 3.859898 32.842664 -0.025495
2010-10-27 07:25:23 51°23.854 2°44.385 12.7281 3.859898 32.842664 -0.025495
2010-10-27 07:25:28 51°23.869 2°44.369 12.7298 3.866754 32.908347 -0.060319
2010-10-27 07:25:33 51°23.885 2°44.353 12.7331 3.867387 32.914348 0.009329
2010-10-27 07:25:39 51°23.903 2°44.333 12.737 3.866438 32.902628 -0.025495
2010-10-27 07:25:43 51°23.916 2°44.321 12.7413 3.868653 32.918873 -0.060319
2010-10-27 07:25:48 51°23.932 2°44.305 12.7447 3.867703 32.909873 -0.025495
2010-10-27 07:25:53 51°23.947 2°44.289 12.7498 3.867703 32.909873 -0.025495
2010-10-27 07:25:59 51°23.967 2°44.271 12.7535 3.865172 32.883158 -0.060319
2010-10-27 07:26:03 51°23.979 2°44.256 12.7577 3.867176 32.900797 -0.025495
2010-10-27 07:26:08 51°23.994 2°44.241 12.7619 3.866016 32.88912 -0.025495
2010-10-27 07:26:13 51°24.01 2°44.225 12.7655 3.86591 32.886084 -0.025495
2010-10-27 07:26:19 51°24.029 2°44.206 12.7711 3.862957 32.852668 -0.060319
2010-10-27 07:26:23 51°24.041 2°44.193 12.7769 3.862957 32.852668 -0.060319
2010-10-27 07:26:28 51°24.057 2°44.177 12.7816 3.861796 32.841674 -0.025495
2010-10-27 07:26:33 51°24.072 2°44.16 12.7864 3.866332 32.882617 -0.025495
2010-10-27 07:26:38 51°24.087 2°44.143 12.791 3.866859 32.880151 -0.025495
2010-10-27 07:26:43 51°24.103 2°44.129 12.7956 3.867598 32.883754 -0.060319
2010-10-27 07:26:48 51°24.119 2°44.114 12.7989 3.866437 32.868695 -0.025495
2010-10-27 07:26:53 51°24.135 2°44.099 12.8021 3.866437 32.868695 -0.025495
2010-10-27 07:26:58 51°24.151 2°44.085 12.8049 3.861902 32.822355 -0.025495
2010-10-27 07:27:03 51°24.167 2°44.071 12.8095 3.869918 32.890135 -0.025495
2010-10-27 07:27:08 51°24.184 2°44.057 12.8161 3.873715 32.927454 -0.060319
2010-10-27 07:27:13 51°24.2 2°44.044 12.8213 3.873188 32.91228 -0.060319
2010-10-27 07:27:18 51°24.217 2°44.031 12.826 3.874875 32.926903 -0.060319
2010-10-27 07:27:23 51°24.234 2°44.018 12.8293 3.874875 32.926903 -0.060319
2010-10-27 07:27:28 51°24.25 2°44.006 12.8342 3.875086 32.927543 -0.060319
2010-10-27 07:27:34 51°24.269 2°43.994 12.8396 3.875719 32.924715 -0.025495
2010-10-27 07:27:39 51°24.284 2°43.98 12.8459 3.872027 32.885028 -0.060319
2010-10-27 07:27:43 51°24.297 2°43.972 12.8482 3.874242 32.900569 -0.060319
2010-10-27 07:27:48 51°24.311 2°43.961 12.8519 3.875191 32.908875 -0.025495
2010-10-27 07:27:53 51°24.325 2°43.949 12.8583 3.875191 32.908875 -0.025495
2010-10-27 07:27:59 51°24.342 2°43.937 12.8641 3.872554 32.879183 -0.060319
2010-10-27 07:28:03 51°24.353 2°43.928 12.869 3.869812 32.846477 -0.025495
2010-10-27 07:28:08 51°24.368 2°43.918 12.8729 3.872449 32.860594 -0.025495
2010-10-27 07:28:13 51°24.382 2°43.908 12.8779 3.877934 32.913815 -0.060319
2010-10-27 07:28:19 51°24.399 2°43.896 12.8823 3.87498 32.879118 -0.060319
2010-10-27 07:28:23 51°24.409 2°43.888 12.888 3.87498 32.879118 -0.060319
2010-10-27 07:28:28 51°24.423 2°43.878 12.8911 3.879832 32.922964 -0.060319
2010-10-27 07:28:33 51°24.437 2°43.868 12.8972 3.879516 32.91117 -0.025495
2010-10-27 07:28:38 51°24.451 2°43.859 12.9015 3.886477 32.974277 -0.060319
2010-10-27 07:28:43 51°24.463 2°43.849 12.9043 3.885106 32.95589 -0.025495
2010-10-27 07:28:48 51°24.474 2°43.841 12.9098 3.88922 32.986641 -0.025495
2010-10-27 07:28:53 51°24.483 2°43.831 12.9156 3.88922 32.986641 -0.025495
2010-10-27 07:28:58 51°24.492 2°43.823 12.9204 3.891013 33.000199 -0.025495
2010-10-27 07:29:03 51°24.5 2°43.814 12.925 3.891646 33.002111 -0.060319
2010-10-27 07:29:08 51°24.508 2°43.806 12.9276 3.884789 32.932584 -0.025495
2010-10-27 07:29:13 51°24.515 2°43.798 12.9328 3.894072 33.016899 -0.025495
2010-10-27 07:29:18 51°24.521 2°43.79 12.9361 3.894704 33.018809 -0.025495
2010-10-27 07:29:23 51°24.527 2°43.782 12.9388 3.894704 33.018809 -0.025495
2010-10-27 07:29:28 51°24.533 2°43.775 12.9416 3.89386 33.005412 -0.060319
2010-10-27 07:29:33 51°24.538 2°43.768 12.9436 3.898185 33.04152 -0.060319
2010-10-27 07:29:38 51°24.543 2°43.761 12.9457 3.897025 33.024455 -0.025495
2010-10-27 07:29:43 51°24.548 2°43.754 12.948 3.897552 33.026046 -0.025495
2010-10-27 07:29:48 51°24.552 2°43.748 12.9505 3.898712 33.03497 -0.025495
2010-10-27 07:29:54 51°24.558 2°43.741 12.9532 3.898712 33.03497 -0.025495
2010-10-27 07:29:59 51°24.563 2°43.736 12.955 3.901033 33.053494 -0.060319
2010-10-27 07:30:03 51°24.566 2°43.731 12.9572 3.904408 33.081979 0.009329
2010-10-27 07:30:08 51°24.571 2°43.726 12.9591 3.900927 33.039614 -0.025495
2010-10-27 07:30:13 51°24.576 2°43.721 12.9603 3.905041 33.077095 -0.025495
2010-10-27 07:30:19 51°24.582 2°43.716 12.9616 3.904092 33.066775 -0.025495
2010-10-27 07:30:23 51°24.586 2°43.713 12.9631 3.904092 33.066775 -0.025495
2010-10-27 07:30:28 51°24.591 2°43.709 12.9646 3.906096 33.082303 0.009329
2010-10-27 07:30:33 51°24.596 2°43.706 12.9675 3.902826 33.049402 -0.025495
2010-10-27 07:30:39 51°24.602 2°43.702 12.9702 3.906729 33.081492 -0.060319
2010-10-27 07:30:43 51°24.606 2°43.701 12.9724 3.900611 33.024431 -0.025495
2010-10-27 07:30:48 51°24.611 2°43.699 12.9745 3.907784 33.088734 -0.025495
2010-10-27 07:30:53 51°24.616 2°43.697 12.9763 3.907784 33.088734 -0.025495
2010-10-27 07:30:58 51°24.621 2°43.696 12.9776 3.906834 33.078418 -0.025495
2010-10-27 07:31:03 51°24.626 2°43.696 12.9802 3.909577 33.100909 -0.060319
2010-10-27 07:31:08 51°24.631 2°43.696 12.9824 3.905568 33.061049 -0.060319
2010-10-27 07:31:13 51°24.637 2°43.695 12.9839 3.905463 33.054633 -0.025495
2010-10-27 07:31:18 51°24.642 2°43.696 12.9872 3.910632 33.104755 -0.025495
2010-10-27 07:31:23 51°24.647 2°43.697 12.9888 3.910632 33.104755 -0.025495
2010-10-27 07:31:28 51°24.651 2°43.698 12.9914 3.904619 33.047349 -0.060319
2010-10-27 07:31:34 51°24.656 2°43.7 12.9935 3.913691 33.12819 -0.025495
2010-10-27 07:31:38 51°24.659 2°43.7 12.9945 3.913163 33.121177 -0.060319
2010-10-27 07:31:43 51°24.663 2°43.701 12.9971 3.907256 33.060031 -0.025495
2010-10-27 07:31:48 51°24.666 2°43.701 12.9975 3.913374 33.119774 -0.025495
2010-10-27 07:31:53 51°24.668 2°43.701 12.9989 3.913374 33.119774 -0.025495
2010-10-27 07:31:58 51°24.67 2°43.7 13.0016 3.917382 33.15148 0.009329
2010-10-27 07:32:03 51°24.672 2°43.7 13.0021 3.914007 33.118281 -0.025495
2010-10-27 07:32:08 51°24.674 2°43.701 13.0025 3.911581 33.09811 0.009329
2010-10-27 07:32:14 51°24.675 2°43.701 13.0031 3.913268 33.109281 -0.060319
2010-10-27 07:32:19 51°24.675 2°43.701 13.0058 3.916011 33.130399 -0.025495
2010-10-27 07:32:23 51°24.676 2°43.701 13.0077 3.916011 33.130399 -0.025495
2010-10-27 07:32:28 51°24.677 2°43.701 13.0081 3.915905 33.128047 -0.060319
2010-10-27 07:32:33 51°24.677 2°43.702 13.0087 3.917699 33.141565 -0.060319
2010-10-27 07:32:39 51°24.678 2°43.702 13.0101 3.916538 33.134016 -0.025495
2010-10-27 07:32:43 51°24.678 2°43.703 13.0115 3.918121 33.144187 -0.025495
2010-10-27 07:32:48 51°24.678 2°43.704 13.0128 3.913901 33.106435 -0.025495
2010-10-27 07:32:53 51°24.678 2°43.704 13.0132 3.913901 33.106435 -0.025495
2010-10-27 07:32:58 51°24.678 2°43.705 13.0138 3.919175 33.152098 -0.025495
2010-10-27 07:33:03 51°24.678 2°43.706 13.0158 3.915483 33.115929 -0.025495
2010-10-27 07:33:08 51°24.678 2°43.707 13.0156 3.911791 33.080447 -0.025495
2010-10-27 07:33:13 51°24.678 2°43.707 13.0159 3.920125 33.157656 -0.025495
2010-10-27 07:33:18 51°24.677 2°43.708 13.0179 3.921601 33.170223 -0.025495
2010-10-27 07:33:23 51°24.677 2°43.709 13.0184 3.921601 33.170223 -0.025495